GFSWCAN_prec_radar_000.txt.gz
Reflectivity
25 12 -6 -19 -20 -20 -20 -20 -20 -20 -20 -20 -20 -20 -20 -20 -20 -20 -20 -20 -20 -5 -20 -20 -20 -20 -20 -20 -20 -20 -20 -20 -20 10 -20 -20 -8 -20 -20 -20 -20 -16 -15 -20 -6 2 -16 -20 -9 9 -8 -20 11 -11
25 20 8 -20 -20 -20 -13 -20 -20 -20 -20 -20 -20 -20 -20 -20 -20 -20 -20 -20 -20 -20 -20 -20 -20 -20 -20 -20 -20 -20 -20 -20 -20 -7 -11 -15 12 2 3 -20 -20 -20 -20 -18 -17 -6 -19 -4 15 -20 -20 -11 8 -1
-3 20 21 -3 -5 -20 -7 -4 -20 -20 -20 -20 -20 -20 -20 -20 -20 -20 -20 -20 -20 -15 -20 -20 -20 -20 -20 -20 -20 -20 -20 -20 -20 -20 -20 -19 17 -20 -20 -20 -8 -20 -20 -20 10 -19 12 17 14 -20 -20 -20 -20 -5
-16 -19 9 19 13 -18 -15 4 -2 -20 -20 -20 -20 -20 -20 -20 -20 -20 -20 -20 -20 -10 26 -20 -20 -20 -20 -20 -20 -20 -20 -20 -20 -20 -4 9 11 -20 -20 -5 -20 -20 -6 -19 -8 -15 4 -20 -7 -20 13 -6 -2 -20
-20 -20 -20 -7 14 -20 -20 -15 9 -16 -20 5 -9 -4 -20 -20 -20 -20 -20 -20 -20 -20 19 -20 -20 -20 -20 -20 -20 -20 -20 -20 -20 3 10 15 -20 -20 -20 -20 -20 -20 -20 1 -20 -1 -5 -5 -20 -17 -13 -20 -20 -20
-20 -20 -20 -20 -20 -20 -20 -20 4 10 -3 -20 -9 0 -12 -20 -20 -20 -20 -20 -20 -20 -13 23 -20 -20 -20 -20 -20 -20 -20 -20 -20 -18 2 -20 -20 -16 8 -13 -20 -20 -20 -19 -9 19 -15 -20 -20 -20 -20 -20 -20 -20
-20 -20 -20 -20 -20 -20 -20 -18 -17 8 -10 -15 -8 -20 -1 -20 -20 -4 -20 -20 -20 -20 16 19 -18 -20 -20 -20 -20 -20 -20 -20 -19 -13 -11 -17 -14 8 4 -8 -20 -2 -20 -12 6 4 12 -8 -20 -20 -20 -20 -20 -20
-20 -20 -20 -20 -20 -20 -3 -3 -4 -2 -3 1 6 -2 -20 -20 -20 -20 -20 -20 -20 -20 -19 -14 -6 -20 -20 -20 -10 -20 -20 -20 -11 11 -7 -18 -20 -5 -10 -20 -20 -20 -12 1 14 -20 -6 -20 -20 -20 -20 -20 -20 -20
-20 -20 -20 -20 -20 -20 -20 11 15 14 9 4 15 2 9 8 -6 -20 -20 -14 -20 -20 -7 17 -15 -3 -20 -20 -20 -20 -20 11 -16 8 -17 -20 -15 4 -20 -20 -20 -20 14 22 -18 -20 -20 -20 -20 -20 -20 -20 -20 -20
-17 8 -20 -20 -20 -13 -19 -20 9 21 25 26 19 22 15 12 19 11 15 -19 -20 -20 -20 12 -5 9 -19 -20 10 4 -15 -0 -3 -20 -20 -8 -10 -20 -20 -20 -12 -13 -9 -20 -20 -20 -20 -20 -20 -20 -20 -20 -20 -20
-4 12 -11 -7 -8 -20 -20 -19 15 28 37 34 35 31 32 23 13 18 2 10 11 11 6 3 6 3 -7 17 14 7 29 11 -2 -8 -4 6 -7 -20 -20 -20 -20 -20 -20 -20 -20 -20 -20 -20 -20 -20 -20 -20 -20 -20
-2 12 -19 -8 -20 -18 -20 13 25 35 39 36 33 29 25 27 29 31 31 28 22 20 20 2 15 5 21 24 27 33 28 21 9 -20 -16 -12 -20 -20 -20 -20 -20 -20 -20 -20 -20 -20 -20 -20 -20 -20 -20 -20 -20 -20
-17 -2 -4 2 5 -20 -20 19 23 25 34 37 32 33 34 35 28 29 19 17 17 2 -13 -1 15 28 26 -1 14 25 6 -3 -20 -2 -19 -20 -20 -20 -20 -20 -20 -20 -20 -20 -20 -20 -20 -20 -20 -20 -20 -20 -20 -20
-19 -20 7 7 -6 -8 12 -15 27 32 34 37 37 28 32 23 30 26 20 4 -2 -5 -16 -17 -4 -0 7 -18 1 -1 -1 -18 -4 -3 -20 -20 -20 -20 -20 -20 -20 -20 -20 -20 -20 -20 -20 -20 -20 -20 -20 -20 -20 -20
-20 -20 -1 8 -6 -20 22 22 27 25 30 23 24 20 20 22 21 17 -1 -6 -13 -18 -16 -6 -1 1 -3 -4 -13 10 -3 -16 -9 -20 -20 -20 -20 -20 -20 -20 -20 -20 -20 -20 -20 -20 -20 -20 -20 -20 -20 -20 -20 -20
-20 -16 -3 -20 -20 -10 18 20 25 31 14 -0 5 14 20 24 18 26 28 12 7 9 13 5 -15 -19 -19 -20 -20 -20 -20 -20 -20 -20 -20 -20 -20 -20 -20 -20 -20 -20 -20 -20 -20 -20 -20 -20 -20 -20 -20 -20 -20 -20
5 5 7 -20 -20 6 25 -2 -20 -18 21 -0 -20 2 7 11 11 10 10 10 14 18 10 10 4 -11 -13 -20 -20 -20 -19 -20 -20 -20 -20 -20 -20 -20 -20 -20 -20 -20 -20 -20 -20 -20 -20 -20 -20 -20 -20 -20 -20 -20
-6 9 4 -20 -16 -12 24 22 18 1 -20 -20 -20 -13 4 2 -2 -11 -20 -16 -17 -20 -20 -20 -20 -20 -20 -20 -18 -20 -20 -20 -20 -20 -20 -20 -20 -20 -20 -20 -20 -20 -20 -20 -20 -20 -20 -20 -20 -20 -20 -20 -20 -15
-20 -2 -12 2 8 11 22 13 -8 -7 -20 -20 -20 -20 -20 -20 -20 -20 -20 -10 -20 -20 -20 -20 -20 -20 -19 -17 -20 -20 -20 -20 -20 -20 -20 -20 -20 -20 -20 -20 -20 -20 -20 -20 -20 -20 -20 -20 -20 -20 -20 -20 -19 -4
1 35 33 18 7 -0 -20 -12 -7 -20 -20 -20 -20 -20 -20 -20 -15 -20 -18 -20 -20 -2 -7 -20 -20 -20 -20 -20 -20 -20 -20 -20 -20 -20 -20 -20 -20 -20 -20 -20 -20 -20 -20 -20 -20 -20 -20 -20 -20 -20 -20 -20 1 5
20 35 29 21 -2 -6 -20 -20 -20 -20 -20 -20 -20 -20 -20 -1 -20 -20 -7 -20 -20 1 -7 -20 -20 -20 -20 -20 -20 -20 -20 -20 -20 -20 -20 -20 -20 -20 -20 -20 -20 -20 -20 -20 -20 -20 -20 -20 -20 -20 3 3 -7 10
25 35 34 32 22 9 -15 -20 -20 -20 -20 -20 -20 -20 -20 -20 -20 -10 -19 -20 -15 -20 -20 -20 -20 -20 -20 -20 -20 -20 -20 -20 -20 -20 -20 -20 -20 -20 -20 -20 -20 -20 -20 -20 -20 -20 -20 -20 -20 -14 -20 -15 -1 -4
34 33 20 15 12 -3 -20 -20 -20 -20 -20 -20 -20 -20 -20 -20 -20 -20 -19 -20 -20 -20 -20 -20 -20 -20 -20 -20 -20 -20 -20 -20 -20 -20 -20 -20 -20 -20 -20 -20 -20 -20 -20 -20 -20 -20 -20 -20 -20 -6 -5 -20 9 -18
21 19 5 -20 -20 -20 -20 -20 -20 -20 -20 -20 -20 -20 -20 -20 -20 -7 -20 -20 -20 -20 -20 -20 -20 -20 -20 -20 -20 -20 -20 -20 -20 -20 -20 -20 -20 -20 -20 -20 -20 -20 -20 -20 -20 -20 -20 3 -13 -1 8 10 -5 5
2 -10 -20 -20 -20 -20 -20 -19 -20 -20 -20 -20 -20 -20 -20 -20 -20 -20 -20 -20 -20 -20 -20 -20 -20 -20 -20 -20 -20 -20 -20 -20 -20 -20 -20 -20 -20 -20 -20 -20 -20 -20 -20 -7 -18 5 6 8 10 12 8 8 6 9
-20 -20 -20 -20 -20 -20 -20 -20 -20 -20 -20 -20 -20 -20 -20 -20 -20 -20 -20 -20 -20 -20 14 7 -20 -20 -20 -20 -20 -20 -20 -20 -20 -20 -20 -20 -20 -20 -14 -20 -13 -10 -20 -14 3 4 0 -3 -1 4 5 -9 -1 0
-15 -20 -20 -20 -20 -20 -20 -20 -20 -20 -20 -20 -20 -20 -20 -20 -20 -20 -20 -20 -20 -20 -20 -20 -20 -20 -20 -20 -20 -20 -20 -20 -20 -20 -20 -20 -20 -20 -20 -18 -18 3 -3 6 6 7 3 2 6 8 6 1 -20 -17
-20 -20 -20 -20 -20 -20 -20 -20 -20 -20 -20 -20 -20 -20 -20 -20 -20 -20 -20 -20 -20 -20 -20 -20 -20 -20 -20 -20 -9 -20 -20 -20 -20 -20 -20 -20 -20 -12 -4 -15 -15 -17 -11 2 4 4 6 7 8 -4 -2 4 3 -17
-20 -20 -20 -20 -20 -20 -20 -20 -20 -20 -20 -20 -20 -20 -20 -20 -20 -20 -18 -20 -20 -20 -20 -20 -20 -20 -20 -20 -20 -2 -20 -20 -20 -20 -20 -5 10 11 -13 -6 -4 -10 -20 -20 -20 -16 -6 3 -7 -20 -19 -5 -3 -5
-20 -20 -20 -20 -20 -20 -20 -20 -20 -20 -20 -20 -20 -20 -20 -20 -6 -18 -20 -20 -20 -20 -20 -20 -20 -20 -8 -20 -17 -19 -13 -15 -17 -16 -19 -19 -18 -10 -8 -16 -15 -9 -20 -20 -20 -20 -20 -20 -20 -20 -20 -20 -20 -20
-20 -20 -20 -20 -20 -20 -20 -20 -20 -20 -20 -20 -20 -20 -19 -20 -7 -8 -20 -13 -20 -20 -20 -20 -20 -2 -2 -6 -15 -20 -14 -19 -16 -17 -18 -19 -20 -20 -20 -20 -20 -19 -20 -14 -20 -4 -15 -19 -20 -20 -20 -20 -20 -20
-20 -20 -20 -20 -20 -20 -20 -20 -20 -20 -20 -20 -20 -20 -20 -20 -20 -5 -3 -11 -20 -20 -20 -20 -20 -1 -19 -19 -19 -19 -20 -20 -20 -20 -20 -20 -19 -20 -20 -20 -11 -14 -15 -19 -20 -20 -20 -20 -20 -20 -20 -20 -20 -20
-20 -20 -20 -20 -20 -20 -20 -20 -20 -20 -20 -20 -20 -20 -20 -20 -20 -5 -20 -14 -0 -2 -16 -20 -20 -20 -4 -20 -20 -20 -20 -20 -20 -20 -20 -20 -20 -20 -14 -17 -13 -9 -13 -20 -20 -20 -20 -20 -20 -20 -20 -20 -20 -20

GFSWCAN_prec_radar_006.txt.gz
Reflectivity
13 -18 -20 -20 -20 -20 -20 -20 -20 -20 -20 -20 -20 -20 -20 -20 -20 -20 -20 -20 -20 -20 -20 -20 -20 -20 -20 -20 -20 -20 -20 -20 -20 -20 -12 -20 -20 -20 -20 -20 -20 -20 -20 -20 -8 -20 -15 -20 -20 -20 -9 -10 -20 -20
28 18 -20 -20 -20 -20 -20 -20 -20 -20 -20 -20 -20 -20 -20 -20 -20 -20 -20 -20 -20 -20 -20 -20 -20 -20 -20 -20 -20 -20 -20 -20 -20 -5 9 -20 7 10 -20 -20 -20 -20 -20 -20 -20 -20 -20 -15 -20 -20 -20 7 -18 16
37 26 19 -19 -20 -20 -20 -20 -20 -20 -20 -20 -20 -20 -20 -20 -20 -20 -20 -20 -20 -16 -20 -20 -20 -20 -20 -20 -20 -20 -20 -20 -20 -20 -20 -20 1 -20 -8 -20 -20 -20 -20 -20 -17 -20 -20 -20 -11 -15 -14 -20 -16 -19
36 32 23 11 -20 -20 -20 -20 -20 -20 -20 -20 -20 -20 -20 -20 -20 -20 -20 -20 -20 -14 23 -20 -20 -20 -20 -20 -20 -20 -20 -20 -20 -20 3 0 -3 -20 -20 -20 -20 -20 -20 -20 -20 -20 -20 -10 -20 -20 -20 -15 12 -18
20 30 23 2 -20 -6 -20 -1 -11 -20 -20 -16 -3 6 -3 -20 -20 -20 -20 -20 -20 -20 5 -20 -20 -20 -20 -20 -20 -20 -20 -20 -20 -5 9 -13 -20 -20 -0 -20 -20 -13 -18 -20 -12 -19 -20 -10 -20 -20 -20 -19 -12 -12
6 -12 7 12 -20 -20 -9 -20 8 -12 -5 9 4 10 10 -20 -20 -20 -20 -20 -20 -20 -14 9 -20 -20 -20 -20 -20 -20 -20 -0 -20 -20 -20 -20 -20 -20 13 -20 -17 -13 -20 -20 -20 -20 -20 -20 -20 -20 -20 -20 -20 -20
-12 3 -20 -7 -7 5 11 6 -4 8 -20 7 2 10 9 -20 -8 -17 -9 -20 -20 -20 5 4 -6 -20 -20 -20 -20 -20 -10 -1 6 10 -3 -20 -20 12 6 -20 -20 -20 -20 -20 -20 -20 -20 -20 -6 -16 -20 -20 -20 -20
-20 -16 -19 -20 -20 -20 -20 -14 -17 -8 -20 -14 -18 -6 -20 -20 -20 -15 -20 -20 -13 -20 -17 -20 -5 -20 -20 -3 -20 -20 -20 -20 -18 -7 -9 -20 -6 -3 -0 -20 -20 -20 -20 -20 -20 -20 -20 -19 -20 -20 -20 -20 -20 -20
-20 -13 -20 -20 -20 -20 -20 -20 -20 -20 -20 5 -18 -20 -17 -16 9 -20 -16 -10 -20 -19 -5 14 -16 -13 -20 -20 -19 -20 -20 9 -20 11 -10 1 3 -15 -20 -20 -20 -20 -20 -20 -20 -20 -20 -20 -20 -20 -20 -20 -20 -20
-20 -20 -20 -20 -20 -20 -20 -20 -20 -20 -2 13 1 -1 4 12 -16 -19 -19 -15 -20 3 9 0 -11 -6 -19 -20 6 -20 -1 7 -1 -20 -20 -20 -20 -20 -20 -20 -20 -20 -20 -20 -20 -20 -20 -20 -20 -20 -20 -20 -20 -20
-20 -20 -20 -20 -20 -20 -20 -9 -15 -3 24 17 24 3 9 19 -20 -7 0 1 -17 7 -17 -20 -10 -20 -20 -13 1 -20 0 2 -8 -20 -15 -20 -20 -20 -20 -20 -20 -20 -20 -20 -20 -20 -20 -20 -20 -20 -20 -20 -20 -20
-20 -20 -20 -20 -20 -20 -20 -3 -5 -11 11 21 22 20 23 26 28 26 31 17 -15 -19 -20 -19 -20 -12 -14 -16 -9 -20 -19 -18 -20 -20 11 -1 -20 -20 -20 -20 -20 -20 -20 -20 -20 -20 -20 -20 -20 -20 -20 -20 -20 -20
-20 -20 -20 -20 -18 -1 -0 -3 -4 5 13 28 32 31 30 30 29 26 20 14 1 -20 -20 -9 -20 -20 -20 -20 -18 -3 11 11 16 18 1 -2 -13 -20 -20 -20 -19 -20 -20 -20 -20 -20 -20 -20 -20 -20 -20 -20 -20 -20
-20 -20 -20 -20 -10 1 -20 7 7 1 -19 11 28 24 30 25 30 23 24 19 19 6 -7 -15 -12 -20 -9 -11 27 18 27 14 9 9 -3 17 6 5 -0 -13 -20 -20 -20 -20 -20 -20 -20 -20 -20 -20 -20 -20 -20 -20
-20 -20 -20 -20 -18 -19 2 -5 -20 -20 -11 0 19 13 21 28 28 28 28 24 16 20 31 30 26 23 27 16 30 21 15 13 10 22 29 21 12 6 6 -12 -20 -20 -20 -20 -20 -20 -20 -20 -20 -20 -20 -20 -20 -20
-20 -20 9 -20 -20 -18 -4 5 -20 -20 -20 -20 -10 4 22 23 28 31 32 30 31 37 35 31 32 29 18 20 13 16 14 13 27 23 6 8 9 -4 -12 -7 -19 -20 -20 -20 -20 -20 -20 -20 -20 -20 -20 -20 -20 -20
-20 6 -17 -20 -20 -20 -18 -20 -1 -20 -19 -18 -19 -2 -10 18 27 20 25 29 21 21 25 28 17 17 13 8 8 12 13 25 23 -3 -6 4 5 -0 -19 -20 -20 -20 -20 -20 -20 -20 -20 -20 -20 -20 -20 -20 -20 -20
-11 -2 -19 -20 -6 -16 -20 -20 -12 -20 -20 -20 -8 -6 -7 -2 -2 0 -11 -7 0 7 6 8 5 6 7 8 11 4 3 6 8 7 -3 -19 -20 -20 -20 -20 -20 -20 -20 -20 -20 -20 -20 -20 -20 -20 -20 -20 -6 -17
-5 -0 -3 22 1 -20 -20 -20 -20 -5 -20 -20 -20 -20 -19 -20 -20 -12 -5 -15 -12 -10 -13 -5 -3 -3 -1 -7 -9 -8 -17 -15 -11 -16 -19 -20 -20 -20 -20 -20 -20 -20 -20 -20 -20 -20 -20 -20 -20 -20 -20 -11 -20 -10
-12 0 -19 22 5 -20 -15 -7 -16 12 2 -20 -20 -13 -15 -20 -19 4 6 -14 -20 -12 -20 -20 -16 -17 -14 -20 -20 -20 -20 -20 -20 -20 -20 -20 -20 -20 -20 -20 -20 -20 -20 -20 -20 -20 -20 -20 -3 5 -20 -20 6 16
-10 -12 -7 28 24 -17 -20 -20 -7 -5 -20 -11 -20 -7 -20 -8 -18 5 1 -0 23 9 -20 -20 3 -20 -20 -20 -20 -20 -20 -20 -20 -20 -20 -20 -20 -20 -20 -20 -20 -20 -20 -20 -20 -20 -20 -20 -20 -20 15 -18 8 -20
2 13 2 28 29 12 -20 -20 -10 -19 -3 -6 -20 4 -20 -20 -20 -12 -20 -20 -20 -19 -20 -20 -20 -5 1 -20 -20 -20 -20 -20 -20 -20 -20 -20 -20 -20 -20 -11 -5 -7 -15 -20 10 -14 -20 -11 11 15 -18 0 -15 -18
16 9 22 20 24 19 15 -11 -15 -20 -20 -17 -20 -20 -20 -20 -20 -20 -20 -20 -20 -20 -20 -20 -20 -20 -20 -20 -20 -20 -20 -20 -20 -20 -20 -20 -20 -20 12 -12 -1 -7 -20 -20 11 -20 4 0 -15 -5 -20 -8 -6 -3
9 26 28 14 27 19 -7 -20 -20 -20 -7 -17 -20 -20 -10 -11 -20 -20 -7 -20 -20 -20 -20 -20 -20 -20 -20 -20 -20 -20 -20 -20 -20 -20 -3 -9 5 -6 3 -3 1 -2 -2 13 12 13 -11 -20 -20 -20 -20 -5 -8 7
17 21 28 17 14 4 -2 -5 -19 -2 -6 -6 -13 -1 -6 -20 -1 -20 -20 -9 -11 -11 -20 -18 -20 -20 -20 -20 -19 -19 -20 -20 -20 -20 -20 -20 -19 -19 -9 -1 -12 0 -20 -3 3 17 -8 4 -20 -3 8 13 1 0
26 21 16 11 -5 2 -5 -7 -10 -3 -20 -20 -13 -17 -16 -3 -20 -20 -12 5 -6 -20 -6 -20 -20 -20 -20 -20 -20 -20 -20 -20 -20 -20 -20 -20 -16 0 3 7 9 -12 -15 -7 8 -0 0 7 13 11 13 0 8 11
13 7 -19 -19 -1 1 8 9 3 -14 -20 -20 -10 -14 -20 -20 -20 -19 -20 -20 -7 -15 -20 -20 -20 -20 -20 -20 -20 -19 -20 -20 -12 -3 -14 -20 6 0 -3 1 -2 1 3 6 6 4 3 5 7 7 4 12 12 6
0 -0 5 7 -10 -20 -20 -20 -20 -20 -20 -20 -20 -18 -20 -20 -10 -18 -20 -20 -20 -6 -19 -20 -20 -20 -20 -20 -17 2 -20 -11 -20 -20 -20 4 14 -20 -20 -4 -0 -4 1 0 4 3 5 7 7 9 3 -1 9 10
-20 -18 -20 -20 -20 -20 -20 -20 -20 -20 -20 -20 -2 -1 -20 -20 -15 -19 -18 -4 -3 -20 -20 -18 -18 -20 -1 -6 7 -10 -15 -4 -16 -20 -20 -18 -18 -18 -4 3 2 -1 2 1 -19 -2 0 7 9 3 3 14 7 7
-14 -20 -19 -20 -20 -13 0 1 -18 -12 -20 -16 -16 -20 -20 -20 0 -10 -1 -4 -14 -4 2 3 2 -4 0 -2 1 -11 6 -20 -4 -1 -8 -6 2 3 4 2 -12 2 3 2 2 -7 -3 -18 -10 10 -11 -20 -5 7
-20 -20 -20 -19 -12 -9 -15 -20 -20 -20 -20 -19 -8 -2 -15 -18 -1 -4 -4 4 2 -9 -7 -7 -5 1 -1 0 -1 -2 -3 -12 2 -3 -18 1 2 3 3 -9 -0 4 3 3 -0 2 3 -3 3 5 -20 -10 -0 -7
-20 -13 5 6 7 -3 -20 -20 -20 -20 -5 -17 3 -20 -18 -4 -20 -3 -2 -2 -1 -3 -19 -4 -4 -3 -1 -1 8 5 -1 3 6 4 3 4 1 2 1 -2 0 0 -4 -6 -5 5 -1 -5 -6 -14 -7 -14 -7 -20
-20 -20 -20 -20 -20 -20 -16 -20 -19 -20 -1 -7 -6 -20 -20 -10 -20 -4 -1 1 1 -5 -3 -3 -2 -1 2 2 -20 5 -17 -5 -16 -15 3 -10 -20 -16 -8 0 0 -20 -20 -17 1 3 -20 -19 -18 -16 -18 -20 -20 -20

GFSWCAN_prec_radar_012.txt.gz
Reflectivity
4 4 2 -20 -20 -20 -20 -20 -20 -20 -20 -20 -20 -20 -20 -20 -20 -20 -20 -20 -20 -20 -20 -20 -20 -20 -20 -20 -20 -20 -20 -20 -20 -20 -20 -20 -20 -20 -20 -20 -20 -20 -20 -20 -20 -20 -20 -20 -20 -20 -20 -20 -20 -20
3 3 -18 -20 -20 -20 -20 -20 -20 -20 -20 -20 -20 -20 -20 -20 -20 -20 -20 -20 -20 -20 -20 -20 -20 -20 -20 -20 -20 -20 -20 -20 -20 -20 -20 -20 -20 -20 -20 -20 -20 -20 -20 -20 -20 -20 -20 -20 -20 -20 -20 -20 -20 -20
-2 -20 -20 -20 -20 -20 -20 -20 -20 -20 -20 -20 -20 -19 -20 -20 -20 -20 -20 -20 -20 -20 -20 -20 -20 -20 -20 -20 -20 -20 -20 -20 -20 -20 -20 -20 -20 -20 -20 -20 -20 -20 -20 -20 -20 -20 -20 -20 -20 -20 -20 -20 -20 -20
-20 -20 -20 -20 -20 -20 -20 -20 -20 -20 -20 -1 9 9 8 -11 -20 -20 -20 -20 -20 -20 -20 -20 -20 -20 -20 -20 -20 -20 -20 -20 -20 -20 -20 -20 -20 -20 -20 -20 -20 -20 -20 -20 -20 -20 -20 -20 -20 -20 -20 -20 -20 -20
-2 -11 -20 -9 -8 -17 -20 -20 -20 -8 7 10 10 9 -2 7 -16 -20 -20 -20 -20 -20 -20 -20 -20 -20 -20 -20 -20 -20 -20 -20 -20 -20 -20 -20 -20 -20 -20 -20 -20 -16 -20 -20 -20 -20 -20 -20 -20 -20 -20 -20 -20 -20
24 12 -7 -13 0 11 9 10 -12 10 11 11 11 7 -20 -20 -20 -20 -20 -20 -20 -20 -20 -20 -20 -20 -20 -20 -20 -20 -20 -20 -20 -20 -20 -20 -20 -20 -20 -20 -19 -20 -20 -20 -20 -20 -20 -20 -20 -20 -20 -20 -20 -20
31 27 9 -11 -20 -19 -4 11 10 -3 11 10 9 4 -20 -20 -20 -20 -20 -20 -20 -20 -20 -17 -20 -20 -20 -20 -20 -20 -20 -20 -20 -20 -5 -20 -20 -20 -8 -20 -18 -20 -20 -20 -20 -20 -20 -20 -20 -20 -20 -20 -20 -20
34 30 19 -2 -20 -1 -9 -16 3 -15 10 4 6 -19 -20 -20 -20 -20 -20 -20 -5 -20 -20 -20 -20 -20 -20 -20 -14 -20 -12 -10 -17 -20 -17 -20 -20 -20 -20 -20 -20 -20 -20 -20 -20 -20 -20 -20 -20 -20 -20 -9 9 -2
-19 -1 10 24 -3 -20 -16 11 10 5 -17 5 -1 -20 -20 -20 -20 -20 -14 0 -20 -20 -20 -12 -20 -20 -20 -20 -20 -20 -20 -15 -20 -11 -19 -20 -20 -19 -20 -20 -20 -20 -20 -20 -20 -20 -20 -20 -20 -17 16 25 18 -0
-20 -20 -20 -20 -20 -20 2 7 12 6 7 -20 -20 -20 -20 -20 -4 -20 -20 -20 -20 -20 -20 -19 -20 -20 -20 -20 -18 -20 12 -20 -20 -20 -20 -20 -20 -20 -20 -20 -20 -20 -20 -20 -20 -20 -20 -20 -20 16 24 17 -9 -20
-20 -20 -20 -16 -15 -7 -1 3 10 12 -4 -19 -20 -11 -20 -20 -20 -20 -20 -14 -20 -20 -20 -20 -20 -20 -20 -20 -20 -20 -20 -20 -20 -20 -20 -20 -20 -20 -20 -20 -20 -20 -20 -20 -20 -18 2 27 35 27 21 -19 -17 -19
-20 -20 -20 -6 5 -12 9 7 -1 2 -19 -20 -20 -20 -8 -7 -20 -20 -20 -20 -20 -20 -18 -1 -15 -20 -20 -20 -20 -20 -20 -20 -20 -20 -20 -20 -20 -20 -20 -20 -20 -20 -20 -20 -16 4 34 30 21 -16 -16 1 -10 -20
-20 -20 -20 -20 -16 9 -19 -20 -7 18 16 7 21 23 27 28 32 21 11 5 -6 -5 15 -7 -19 -20 -20 -20 22 30 17 7 -11 -20 -20 -8 -2 -17 -20 -18 -20 -19 6 30 36 28 13 5 1 1 -5 -20 -20 -20
-20 -20 -20 -20 -20 -20 -20 1 11 1 14 20 18 3 15 -6 -15 -17 -20 -10 7 9 3 -5 -4 -3 6 -12 19 18 21 12 13 5 -18 25 29 23 29 26 23 13 23 17 12 9 4 -7 -16 -20 -20 -20 -20 -20
-20 -20 -20 -20 -20 -20 -20 -20 -20 -20 -20 -20 -5 -6 -5 -15 7 -6 -20 -4 16 23 23 19 22 21 10 19 6 12 14 12 4 6 12 25 34 25 -4 -8 -1 3 4 5 -5 -19 -20 -20 -20 -20 -20 -20 -20 -20
-20 -20 -20 -20 -20 -20 -20 -20 -20 -20 -20 -20 -20 -20 -20 -20 -20 -14 7 3 15 14 16 21 2 9 13 16 -1 -7 -11 9 12 -3 19 17 19 17 22 26 -9 -5 6 -8 -20 -20 -20 -20 -20 -20 -20 -20 -20 -20
-20 -20 -20 -20 -20 -20 -20 -20 -20 -20 -20 -20 -20 -14 -20 -20 -20 -5 -7 -6 -13 8 -20 -19 -20 -20 -3 1 6 10 12 7 15 20 13 7 12 12 14 18 21 17 6 -6 -20 -20 -20 -20 -20 -20 -20 -20 -20 -20
-10 -6 8 -14 -20 -20 -20 -20 -20 -20 -20 -17 -20 -20 -11 -18 -18 -17 -20 -20 -20 -20 -20 -20 -20 -19 4 3 10 9 18 17 18 17 11 0 -5 -2 -6 -20 -20 -20 -20 -20 -20 -20 -20 -20 -20 -20 -20 -20 -20 -20
-6 -14 3 -20 -20 -20 -20 -20 -20 -20 -20 -20 -18 9 -2 10 -13 -13 6 4 -20 -20 -20 -20 -20 -20 -20 -20 -20 -20 -20 -20 -20 -20 -20 -20 -20 -20 -20 -20 -20 -20 -20 -20 -20 -20 -20 -20 -20 -20 -20 -20 -20 -20
-20 -20 -5 -18 -20 -20 -20 -20 -20 -20 -20 -20 -20 -0 -3 -11 -12 0 4 -8 -20 -20 -20 -20 -20 -20 -20 -20 -20 -20 -20 -20 -20 -20 -20 -20 -20 -20 -20 -20 -20 -20 -20 -20 -20 -20 -20 -20 -20 -20 -20 -20 -20 -20
-20 -11 -19 -20 -20 -20 -5 -20 -20 -20 -6 -20 -20 -20 -18 5 -5 -4 -3 -20 -20 -20 -20 -20 -20 -20 -20 -20 -20 -20 -20 -20 -20 -20 -20 -20 -20 -20 -20 -20 -20 -20 -20 -20 -20 -20 -20 -20 -20 -20 -20 -20 -20 -20
-20 -20 -20 -10 -20 -20 -20 -20 -20 -20 -20 -20 -10 -18 -20 -12 -13 -5 -20 -20 -20 -20 -20 -20 -20 -20 -20 -20 -20 -20 -20 -20 -20 -20 -20 -20 -20 -20 -20 -20 -20 -20 -20 -20 -20 -20 -20 -20 -20 -20 -20 -20 -20 -18
-13 -7 -20 -20 -20 -20 -20 -2 -14 -20 -20 -20 -9 -20 -20 -20 -20 -20 -20 -20 -20 -20 -20 -20 -20 -20 -20 -20 -20 -20 -20 -20 -20 -20 -20 -20 -20 -20 -20 -20 -20 -20 -20 -20 -19 -20 -20 -20 -19 -12 -10 -20 1 2
-3 -20 -20 -20 -20 -20 -20 -15 -15 -17 -20 -20 -20 -20 -20 -20 -15 -20 -20 -20 -20 -20 -20 -20 -20 -20 -20 -20 -20 -20 -20 -20 -20 -20 -20 -20 -20 -20 -20 -20 -20 -20 -20 -19 -20 -20 -20 -20 -20 -20 -20 -18 -19 -20
-19 -20 -20 -20 -20 -20 -20 -20 -3 3 -13 -20 -20 -20 -20 -20 -20 -20 -20 -20 -20 -20 -20 -20 -20 -20 -20 -20 -20 -20 -20 -20 -20 -20 -20 -20 -20 -20 -20 -20 -20 -20 -20 -20 -20 -20 -20 -20 -20 -20 -20 -20 -20 -20
-20 -20 -20 -20 -20 -20 -20 -20 -19 -20 -20 -3 4 -18 -20 -19 -20 -20 -20 -17 -19 -20 -20 -20 -20 -20 -20 -20 -20 -20 -20 -20 -20 -20 -20 -20 -20 -20 -20 -20 -20 -20 -20 -20 -20 -20 -20 -20 -20 -20 -20 -20 -20 -11
1 -20 -20 -20 -15 -8 5 2 16 14 -4 -8 -19 -13 7 -6 -20 -20 -20 -18 -19 -17 -20 -20 -20 -20 -20 -20 -20 -20 -20 -20 -20 -20 -20 -20 -20 -20 -20 -20 -20 -20 -20 -20 -20 -20 -20 -20 -20 -20 -20 -20 -20 -20
-20 -20 -13 5 15 12 12 7 14 13 14 17 12 8 -14 -20 -20 -18 -18 -17 -15 -20 -20 -20 -20 -20 -20 -20 -20 -20 -20 -20 -20 -20 -19 -20 -20 -20 -20 -20 -20 -20 -20 -20 -20 -20 -20 -20 -20 -20 -20 -20 -20 -2
5 7 6 5 4 2 2 -5 -6 -6 -14 -20 -20 -20 -20 -20 -19 -18 -19 -20 -20 -20 -20 -20 -20 -20 -20 -20 -20 -20 -20 -20 -20 -20 -20 -20 -20 -20 -20 -20 -20 -20 -20 -20 -20 -20 -20 -20 -20 1 9 -13 -6 -5
-20 -20 -20 -20 -20 -20 -20 -20 -20 -20 -20 -20 -20 -20 -20 -20 -18 -20 -20 -20 -20 -20 -20 -20 -20 -20 -20 -20 -20 -20 -20 -20 -20 -20 -20 -20 -20 -20 -20 -20 -20 -20 -20 -20 -20 -20 -20 -20 -20 -16 -17 -1 -1 -1
-14 -20 -20 -20 -20 -20 -20 -13 -16 -20 -20 -20 -20 -20 -20 -20 -20 -20 -20 -20 -20 -20 -20 -20 -20 -20 -20 -20 -20 -20 -20 -20 -20 -20 -20 -20 -20 -20 -20 -20 -20 -20 -20 -20 -20 -20 -20 -20 -20 -20 -20 -20 -20 -12
-20 -20 -20 -20 -20 -20 -20 -20 -20 -20 -20 -20 -20 -20 -20 -20 -20 -20 -20 -20 -20 -20 -20 -20 -20 -20 -20 -20 -20 -20 -20 -20 -20 -20 -20 -20 -20 -20 -20 -20 -20 -20 -20 -20 -20 -20 -20 -20 -20 -20 -20 -20 -20 -20
-20 -20 -20 -20 -20 -20 -20 -20 -20 -20 -20 -20 -20 -20 -20 -20 -20 -20 -20 -20 -20 -20 -20 -20 -20 -20 -20 -20 -20 -20 -20 -20 -20 -20 -20 -20 -20 -20 -20 -20 -20 -20 -20 -20 -20 -20 -20 -20 -20 -20 -20 -20 -20 -20

GFSWCAN_prec_radar_018.txt.gz
Reflectivity
9 -1 5 -9 -20 -20 -20 -20 -20 -20 -20 -20 -20 -20 -20 -20 -20 -20 -15 -20 -20 -20 -20 -20 -20 -20 -20 -20 -20 -20 -20 -20 -20 -20 -20 -20 -20 -20 -20 -20 -20 -20 -20 -20 -20 -20 -20 -20 -20 -20 -20 -20 -20 -20
-8 -16 -12 -19 -20 -20 -20 -20 -20 -20 -20 -0 10 10 -10 -20 -20 6 -16 -20 -20 -20 -20 -20 -20 -20 -20 -20 -20 -20 -20 -20 -20 -20 -20 -20 -20 -20 -20 -20 -20 -20 -20 -20 -20 -20 -20 -20 -20 -20 -20 -20 -20 -20
-19 -16 0 -17 -20 -20 -20 -18 -20 18 9 9 9 9 8 -20 -20 22 12 -20 -20 -20 -20 -20 -20 -20 -20 -20 -20 -20 -20 -20 -20 -20 -20 -20 -20 -20 -20 -20 -20 -20 -20 -20 -20 -20 -20 -20 -20 -20 -20 -20 -20 -20
-20 -20 -20 -20 -20 -20 -2 -6 7 12 13 8 10 11 -9 -20 -20 -20 -20 -20 -20 -20 -20 -20 -20 -20 -20 -20 -20 -20 -20 -20 -20 -20 -20 -20 -20 -20 -20 -20 -20 -20 -20 -20 -20 -20 -20 -20 -20 -20 -20 -20 -20 -20
-20 -20 -20 -20 -19 9 8 1 -7 7 -9 13 -11 -20 -20 -20 -20 -20 -20 -20 -20 -20 -20 -20 -20 -20 -20 -20 -20 -20 -20 -20 -20 -20 -20 -20 -20 -20 -20 -20 -20 -20 -20 -20 -20 -20 -20 -20 -20 -20 -20 -20 -20 -20
-20 -15 -19 -20 4 15 12 3 7 11 10 3 2 -2 -19 -20 -20 -20 -20 -20 -20 -20 -20 -20 -20 -20 -20 -20 -20 -20 -20 -20 -20 -20 -20 -20 -20 -20 -20 -20 -20 -19 -20 -20 -20 -20 -20 -20 -20 -20 -20 -20 -20 -20
-20 -20 -19 -20 -5 22 7 5 -3 10 6 -4 -20 -20 -20 -20 -20 -20 -20 -14 10 -20 -20 -20 -20 -20 -20 -20 -20 -20 -20 -20 -20 -20 -16 -20 -20 -20 -20 -20 -20 -20 -20 -20 -20 -20 -20 -20 -20 -20 -20 -20 -20 -20
-17 -11 -17 -2 -14 25 3 9 7 8 8 -20 -20 -20 -20 -20 -20 -20 -20 -10 -16 -20 -20 -20 -20 -20 -20 -12 -13 -20 -5 -20 -20 -17 -6 -5 -0 -5 -15 -20 -20 -20 -20 -20 -20 -20 -20 -20 -20 -20 -20 -20 -20 -10
6 -5 9 -15 -6 28 11 6 10 9 6 -20 -20 -20 -20 -20 -20 -20 -20 -20 -20 -20 -20 -20 -20 -20 -20 -20 -2 -4 -16 -16 -19 -5 -6 -20 -20 -20 -20 -20 -20 -20 -20 -20 -20 -20 -20 -20 -20 -20 -20 -19 -9 21
-18 -13 1 -1 7 15 29 8 9 2 -20 -20 -20 -20 -20 -20 -20 -20 -20 -20 -20 -20 -20 -20 -20 -17 -20 -20 -3 -16 1 6 -0 -20 2 -20 -20 -20 -20 -20 -20 -20 -20 -20 -20 -20 -20 -20 -20 -20 -20 19 27 25
7 -10 -19 -1 4 -12 -20 11 3 -19 -20 -20 -20 -14 -20 -20 -20 -20 -20 -20 -20 -20 -18 -0 -20 -20 -20 -20 -20 -2 -12 -20 -20 -20 -17 -20 -20 -20 -20 -20 -20 -20 -20 -20 -20 -20 -20 -17 4 26 29 8 15 23
29 22 14 9 4 7 -19 -20 -20 -20 -20 -20 -20 -20 -20 -20 -20 -20 -19 -18 -20 -20 -7 -14 -20 -20 -15 -20 -16 -20 -20 -20 -20 -20 -14 4 -20 -20 -20 -6 -18 -20 -20 -20 -20 -20 -11 3 4 9 13 14 9 7
12 16 23 22 7 7 -2 -19 -20 -20 -20 -20 -20 -20 -20 -20 -20 -20 -20 -20 -20 -20 -20 -19 -20 -20 -20 -20 -20 -20 -20 -20 -19 -19 -18 -17 13 20 28 21 21 10 3 -4 -4 -2 1 8 6 10 8 12 29 13
6 -5 7 11 -2 -7 3 4 19 18 11 -20 -20 -20 -20 -20 -20 -20 -20 -20 -19 -20 -20 -20 -20 -20 -20 -18 5 7 1 -8 -17 -20 -18 -6 20 28 23 -10 -20 -20 -20 -19 -13 -11 -8 -8 -8 -4 -4 -5 -6 -3
-20 -20 -20 -20 6 8 10 8 25 15 16 28 17 -4 -5 -20 -20 -20 1 -14 -9 -2 2 -10 -6 -16 -13 8 -1 11 -20 -20 -18 -19 -13 -3 23 26 13 -19 -20 -20 -20 -20 -20 -20 -20 -20 -10 -8 -10 -14 -15 -17
-20 -20 -20 -20 -20 -20 -9 4 7 -5 -18 -5 -16 -20 -3 -20 -15 -13 4 -4 -6 8 3 6 -20 -12 -8 8 -13 -20 -20 -20 -20 -18 15 27 19 25 8 -20 -20 -20 -20 -20 -20 -20 -20 -20 -20 -20 -20 -20 -20 -20
-20 -20 -20 -20 -20 -20 -20 -20 -20 -19 -20 -20 -20 -20 -20 -20 -17 -4 -7 -9 -18 -13 -20 -9 -20 -20 -9 -13 -15 -18 -14 -9 0 13 18 26 20 4 0 -1 4 6 2 -4 -20 -20 -20 -20 -20 -20 -20 -20 -20 -20
-20 -20 -20 -20 -20 -20 -20 -20 -20 -20 -20 2 -4 8 -20 1 10 6 -19 -20 -20 -20 -20 -20 -20 -20 -20 -20 -20 -20 -20 -20 -20 -8 -0 24 12 -20 -20 -20 -20 -20 -20 -20 -20 -20 -20 -20 -20 -20 -20 -20 -20 -20
-20 -20 -20 -20 -20 -20 -20 -20 -20 -20 -11 5 4 1 3 -4 -17 -20 6 -20 -20 -20 -20 -20 -20 -20 -20 -20 -20 -20 -20 -20 -20 -20 -15 -20 -20 -20 -20 -20 -20 -20 -20 -20 -20 -20 -20 -20 -20 -20 -20 -20 -20 -20
-20 -20 -20 -20 -20 -20 -20 -20 -20 -20 -20 -17 -15 6 7 -8 -8 3 3 -20 -20 -20 -20 -20 -20 -20 -20 -20 -20 -20 -20 -20 -20 -20 -20 -20 -20 -20 -20 -20 -20 -20 -20 -20 -20 -20 -20 -20 -20 -20 -20 -20 -13 -20
-20 -20 -20 -20 -20 -20 -20 -20 -20 -20 -7 -20 -20 -20 -20 -20 -20 -3 -3 -15 -20 -20 -20 -20 -20 -20 -20 -20 -20 -20 -20 -20 -20 -20 -20 -20 -20 -20 -20 -20 -20 -20 -20 -20 -20 -20 -20 -20 -20 -20 -20 -20 -20 -20
-20 -20 -20 -20 -20 -20 -20 -20 -20 -20 -20 -20 -20 -20 -20 -20 -20 -17 -20 -20 -20 -20 -20 -20 -20 -20 -20 -20 -20 -20 -20 -20 -20 -20 -20 -20 -20 -20 -20 -20 -20 -20 -20 -20 -20 -20 -20 -20 -20 -20 -20 -20 -20 -20
-20 -20 -20 -20 -20 -20 -20 -20 -20 -20 -20 -20 -20 -20 -20 -20 -20 -20 -20 -20 -20 -20 -20 -20 -20 -20 -16 -13 -7 -15 -20 -20 -20 -20 -20 -20 -20 -20 -20 -20 -20 -20 -20 -20 -20 -20 -20 -20 -20 -20 -20 -20 -20 -20
-20 -20 -20 -20 -20 -20 -20 -20 -20 -20 -20 -20 -20 -20 -20 -20 -20 -20 -20 -20 -20 -20 -19 -17 -20 -18 -9 -20 -20 -20 -20 -20 -20 -20 -20 -20 -20 -20 -20 -20 -20 -20 -20 -20 -20 -20 -20 -20 -20 -20 -20 -20 -20 -20
-20 -20 -20 -20 -20 -20 -20 -20 -20 -20 -20 -20 -20 -20 -20 -20 -20 -20 -20 -20 -20 -19 -18 -14 -16 -18 -20 -20 -20 -20 -20 -20 -20 -20 -20 -20 -20 -20 -20 -20 -20 -20 -20 -20 -20 -20 -20 -20 -20 -20 -20 -20 -20 -20
-20 -20 -20 -20 -20 -20 -20 -20 -20 -20 -20 -20 -20 -20 -20 -20 -20 -11 -20 -18 -12 -5 -1 2 -18 -20 -20 -20 -20 -20 -20 -20 -20 -20 -20 -20 -20 -20 -20 -20 -20 -20 -20 -20 -20 -20 -20 -20 -20 -20 -20 -20 -20 -20
-20 -20 -20 -20 -20 -20 -20 -20 -20 -10 1 -1 -15 -11 10 6 -4 -19 -8 8 9 13 13 10 7 1 -20 -20 -20 -20 -20 -20 -20 -20 -20 -20 -20 -20 -20 -20 -20 -20 -20 -20 -20 -20 -20 -20 -20 -20 -20 -20 -20 -20
-20 -20 -20 -20 -20 -19 -20 -20 -20 -7 -10 -2 -10 -17 2 2 10 4 3 11 9 0 -7 -6 -14 -20 -20 -20 -20 -20 -20 -20 -20 -20 -20 -20 -20 -20 -20 -20 -20 -20 -20 -20 -20 -20 -20 -20 -20 -20 -20 -20 -20 -20
-20 -20 -20 -20 -20 -20 -20 -20 -20 -20 -20 -20 -20 -20 -20 -20 -20 -20 -20 -20 -20 -20 -20 -20 -20 -20 -20 -20 -20 -20 -20 -20 -20 -20 -20 -20 -20 -20 -20 -20 -20 -20 -20 -20 -20 -20 -20 -20 -20 -20 -20 -20 -20 -20
-20 -20 -20 -20 -20 -20 -20 -20 -20 -20 -20 -20 -20 -20 -20 -20 -20 -20 -20 -20 -20 -20 -20 -20 -20 -20 -20 -20 -20 -20 -20 -20 -20 -20 -20 -20 -20 -20 -20 -20 -20 -20 -20 -20 -20 -20 -20 -20 -20 -20 -20 -20 -20 -20
-20 -20 -20 -20 -20 -20 -20 -20 -20 -20 -20 -20 -20 -20 -20 -20 -20 -20 -20 -20 -20 -20 -20 -20 -20 -20 -20 -20 -20 -20 -20 -20 -20 -20 -20 -20 -20 -20 -20 -20 -20 -20 -20 -20 -20 -20 -20 -20 -20 -20 -20 -20 -20 -20
-20 -20 -20 -20 -20 -20 -20 -20 -20 -20 -20 -20 -20 -20 -20 -20 -20 -20 -20 -20 -20 -20 -20 -20 -20 -20 -20 -20 -20 -20 -20 -20 -20 -20 -20 -20 -20 -20 -20 -20 -20 -20 -20 -20 -20 -20 -20 -20 -20 -20 -20 -20 -20 -20
-20 -20 -20 -20 -20 -20 -20 -20 -20 -20 -20 -20 -20 -20 -20 -20 -20 -20 -20 -20 -20 -20 -20 -20 -20 -20 -20 -20 -20 -20 -20 -20 -20 -20 -20 -20 -20 -20 -20 -20 -20 -20 -20 -20 -20 -20 -20 -20 -20 -20 -20 -20 -20 -20

GFSWCAN_prec_radar_021.txt.gz
Reflectivity
24 27 31 21 14 -2 -19 -20 -20 -20 -20 -20 -20 -20 -20 -20 -20 -20 -20 -20 -20 -20 -20 -20 -20 -20 -20 -20 -20 -20 -20 -20 -20 -20 -20 -20 -20 -20 -20 -20 -20 -20 -20 -20 -20 -20 -20 -20 -20 -20 -20 -20 -20 -20
25 31 5 -1 -6 -19 -19 -20 -20 7 13 7 -18 -20 -20 -20 -20 -20 -20 -20 -7 -20 -20 -20 -20 -20 -20 -20 -20 -20 -20 -20 -20 -20 -20 -20 -20 -20 -20 -20 -20 -20 -20 -20 -20 -20 -20 -20 -20 -20 -20 -20 -20 -20
22 -8 -3 0 -4 -20 -20 -12 11 10 11 7 2 -20 -20 -20 -20 -20 21 15 -20 -20 -20 -20 -20 -20 -20 -20 -20 -20 -20 -20 -20 -20 -20 -20 -20 -20 -20 -20 -20 -20 -20 -20 -20 -20 -20 -20 -20 -20 -20 -20 -20 -20
-8 -20 -20 -16 -20 -15 10 9 2 10 9 6 9 -12 -20 -20 -20 -20 -20 -4 -20 -20 -20 -20 -20 -20 -20 -20 -20 -20 -20 -20 -20 -20 -20 -20 -20 -20 -20 -20 -20 -20 -20 -20 -20 -20 -20 -20 -20 -20 -20 -20 -20 -20
-20 -20 -6 -16 6 11 4 6 4 10 -16 24 -20 -20 -20 -20 -20 25 11 -20 -20 -20 -20 -20 -20 -20 -20 -20 -20 -20 -20 -20 -20 -20 -20 -20 -20 -20 -20 -20 -20 -20 -20 -20 -20 -20 -20 -20 -20 -20 -20 -20 -20 -20
-20 -20 -19 11 10 5 6 11 -0 -20 -20 -4 6 -20 -20 -20 -8 1 5 -14 -20 -20 -20 -20 -20 -20 -20 -20 -20 -20 -20 -20 -20 -20 -20 -20 -20 -20 -20 -20 -20 -20 -20 -20 -20 -20 -20 -20 -20 -20 -20 -20 -20 -20
-20 -9 8 11 8 5 -2 17 9 2 13 -20 -20 -8 18 -20 -20 -19 -20 -17 11 -20 -20 -20 -20 -20 -20 -20 -20 -20 -20 -20 -20 -20 -20 -20 -20 -20 -20 -20 -20 -20 -20 -20 -20 -20 -20 -20 -20 -20 -20 -20 -20 -20
-20 -20 -20 -14 20 12 7 -17 1 14 -20 4 13 2 -11 -5 -20 -20 -20 -20 -20 -20 -20 -20 -20 -20 -20 -3 -20 -20 -16 -20 -20 -20 -8 -20 -20 -18 -20 -20 -20 -20 -20 -20 -20 -20 -20 -20 -20 -20 -20 -20 -20 -20
-14 -20 -15 -11 29 17 3 7 -20 -20 -5 3 10 4 -19 -20 -20 -20 -20 -20 -20 -20 -20 -20 -20 -20 -20 -20 -7 -13 -20 -20 -20 -11 -4 -20 -20 -20 -20 -20 -20 -20 -20 -20 -20 -20 -20 -20 -20 -20 -20 -20 -4 10
-7 -20 -20 -2 15 26 12 0 -4 0 -17 -20 -20 -20 -20 -20 -20 -20 -20 -20 -20 -20 -20 -20 -20 -20 -20 6 -15 -20 -1 -1 4 -20 -20 -19 -20 -20 -20 -20 -20 -20 -20 -20 -20 -20 -20 -20 -16 -2 15 13 15 17
-6 -15 -2 5 19 21 26 -0 -17 -16 -20 -20 -16 7 4 -3 -15 -20 -20 -20 -20 -20 -20 -20 -20 -20 -20 -20 -20 -20 0 -20 -20 -20 -20 -20 -20 -20 -20 -20 -20 -20 -20 -20 -20 -18 -5 -5 -2 4 16 1 -11 -14
23 22 10 10 -14 5 23 29 6 -7 0 3 -16 -19 -20 -20 -20 -20 -20 -20 -20 -20 -20 -20 -13 -20 -20 -20 -20 -20 -20 -20 -20 -20 -17 -17 -20 5 -2 -0 -9 -15 -20 -20 -20 -19 -18 -18 -19 -19 -13 -13 -18 -15
11 1 -9 -4 -7 11 -4 -17 5 14 7 0 -7 -16 -4 -8 -18 -18 -20 -20 -12 -1 -20 -20 -20 -20 -20 -20 -20 -6 -20 -18 -20 -20 -20 -19 12 19 19 7 -16 -20 -20 -20 -20 -20 -20 -20 -20 -20 -20 -20 -20 -20
24 28 30 30 26 18 7 -18 -20 -20 -20 -20 -20 -20 -20 -20 -20 -20 -20 -20 -20 -20 -20 -2 -20 -20 -20 -20 -20 -7 -2 13 -7 -20 -19 -3 21 21 17 4 -20 -20 -20 -20 -20 -20 -20 -20 -20 -20 -20 -20 -20 -20
3 7 7 1 16 23 24 22 24 8 -1 -12 -19 -20 -20 -20 -20 -18 -13 -19 -7 -20 -10 1 -20 -20 -20 -14 -20 -20 -20 -20 -20 -20 -20 -20 -7 -5 -20 -20 -20 -20 -20 -20 -20 -20 -20 -20 -20 -20 -20 -20 -20 -20
-20 -19 -18 -20 -14 -13 5 22 24 18 24 28 15 11 -3 -16 -19 4 12 2 3 3 8 17 -20 -20 -19 -20 -19 -20 -20 -20 -20 -18 -8 14 23 26 -2 -16 -20 -20 -20 -20 -20 -20 -20 -20 -20 -20 -20 -20 -20 -20
-20 -20 -20 -20 -20 -20 -20 -20 -6 -1 -15 -10 -13 -3 -1 14 -8 12 18 18 21 18 -11 -4 -13 -20 -12 -20 -20 -20 -20 -20 -19 12 21 26 -18 -20 -20 -20 -20 -20 -20 -20 -20 -20 -20 -20 -20 -20 -20 -20 -20 -20
-20 -20 -20 -20 -20 -20 -20 -20 -20 -20 -20 -19 -18 1 4 -12 -3 -7 -0 -6 -18 -20 -20 -20 -20 -20 -20 -20 -20 -20 -20 -20 -16 5 4 22 25 7 -20 -20 -20 -20 -20 -20 -20 -20 -20 -20 -20 -20 -20 -20 -20 -20
-20 -20 -20 -20 -20 -20 -20 -20 -20 -20 -18 -11 -10 -2 -6 -6 -20 -11 7 -20 -20 -20 -20 -20 -20 -20 -20 -20 -20 -20 -20 -20 -20 -20 -20 -20 -20 -20 -20 -20 -20 -20 -20 -20 -20 -20 -20 -20 -20 -20 -20 -20 -20 -20
-20 -20 -20 -20 -20 -20 -20 -20 -20 -20 -20 -19 -19 -2 -5 -4 -14 -2 12 -20 -20 -20 -20 -20 -20 -20 -20 -20 -20 -20 -20 -20 -20 -20 -19 -20 -20 -20 -20 -20 -20 -20 -20 -20 -20 -20 -20 -20 -20 -20 -20 -20 -20 -20
-20 -20 -20 -20 -20 -20 -20 -20 -20 -16 -20 -20 -20 -20 -20 -20 -20 -15 -2 -15 -20 -20 -20 -20 -20 -20 -20 -20 -20 -20 -20 -20 -20 -20 -20 -20 -20 -20 -20 -20 -20 -20 -20 -20 -20 -20 -20 -20 -20 -20 -20 -20 -20 -20
-20 -20 -20 -20 -20 -20 -20 -20 -20 -20 -20 -20 -20 -20 -20 -20 -20 -20 -20 -20 -20 -20 -20 -20 -20 -20 -20 -20 -20 -20 -20 -20 -20 -20 -20 -20 -20 -20 -20 -20 -20 -20 -20 -20 -20 -20 -20 -20 -20 -20 -20 -20 -20 -20
-20 -20 -20 -20 -20 -20 -20 -20 -20 -20 -20 -20 -20 -20 -20 -20 -20 -20 -20 -20 -19 -20 -20 -20 -15 -2 -4 -2 -18 -20 -20 -20 -20 -20 -20 -20 -20 -20 -20 -20 -20 -20 -20 -20 -20 -20 -20 -20 -20 -20 -20 -20 -20 -20
-20 -20 -20 -20 -20 -20 -20 -20 -10 -20 -20 -20 -20 -20 -20 -20 -20 -20 -20 -20 -16 -20 -20 -15 -7 3 7 16 6 4 -3 -20 -20 -20 -20 -20 -20 -20 -20 -20 -20 -20 -20 -20 -20 -20 -20 -20 -20 -20 -20 -20 -20 -20
-20 -20 -20 -20 -20 -20 -20 -20 -20 -20 -20 -20 -20 -20 -20 -20 -20 -20 -20 -18 -20 -9 2 12 15 16 15 8 -16 -19 -16 -6 -19 -20 -20 -20 -20 -20 -20 -20 -20 -20 -20 -20 -20 -20 -20 -20 -20 -20 -20 -20 -20 -20
-20 -20 -20 -20 -20 -20 -20 -20 -20 -20 -20 -20 -20 -20 -20 -20 -20 -20 -19 -19 -15 4 5 10 12 13 12 10 8 6 2 -18 -20 -20 -20 -20 -20 -20 -20 -20 -20 -20 -20 -20 -20 -20 -20 -20 -20 -20 -20 -20 -20 -20
-20 -20 -20 -20 -20 -20 -20 -20 -20 -20 -20 -18 -20 -20 -20 -20 -20 -20 -19 -19 -4 12 13 13 11 9 10 8 -5 -20 -20 -20 -20 -20 -20 -20 -20 -20 -20 -20 -20 -20 -20 -20 -20 -20 -20 -20 -20 -20 -20 -20 -20 -20
-20 -20 -20 -20 -20 -20 -20 -20 -20 -20 -20 -20 -20 -20 -20 -20 -20 -20 -20 -20 -18 -16 -17 -14 -15 -19 -17 -20 -20 -20 -20 -20 -20 -20 -20 -20 -20 -20 -20 -20 -20 -20 -20 -20 -20 -20 -20 -20 -20 -20 -20 -20 -20 -20
-20 -20 -20 -20 -20 -20 -20 -20 -20 -20 -20 -20 -20 -20 -20 -20 -20 -20 -20 -20 -20 -20 -20 -20 -20 -20 -20 -20 -20 -20 -20 -20 -20 -20 -20 -20 -20 -20 -20 -20 -20 -20 -20 -20 -20 -20 -20 -20 -20 -20 -20 -20 -20 -20
-20 -20 -20 -20 -20 -20 -20 -20 -20 -20 -20 -20 -20 -20 -20 -20 -20 -20 -20 -20 -20 -20 -20 -20 -20 -20 -20 -20 -20 -20 -20 -20 -20 -20 -20 -20 -20 -20 -20 -20 -20 -20 -20 -20 -20 -20 -20 -20 -20 -20 -20 -20 -20 -20
-20 -20 -20 -20 -20 -20 -20 -20 -20 -13 -20 -20 -20 -20 -20 -20 -20 -20 -20 -20 -20 -20 -20 -20 -20 -20 -20 -20 -20 -20 -20 -20 -20 -20 -20 -20 -20 -20 -20 -20 -20 -20 -20 -20 -20 -20 -20 -20 -20 -20 -20 -20 -20 -20
-20 -20 -20 -20 -20 -20 -20 -20 -20 -20 -20 -20 -20 -20 -20 -20 -20 -20 -20 -20 -20 -20 -20 -20 -20 -20 -20 -20 -20 -20 -20 -20 -20 -20 -20 -20 -20 -20 -20 -20 -20 -20 -20 -20 -20 -20 -20 -20 -20 -20 -20 -20 -20 -20
-20 -20 -20 -20 -20 -20 -20 -20 -20 -20 -20 -20 -20 -20 -20 -20 -20 -20 -20 -20 -20 -20 -20 -20 -20 -20 -20 -20 -20 -20 -20 -20 -20 -20 -20 -20 -20 -20 -20 -20 -20 -20 -20 -20 -20 -20 -20 -20 -20 -20 -20 -20 -20 -20

GFSWCAN_prec_radar_024.txt.gz
Reflectivity
28 31 28 16 27 23 28 27 -2 -20 -14 -20 -20 -20 -20 -20 -20 -1 -20 -20 -20 -20 -20 -20 -20 -20 -20 -20 -20 -20 -20 -20 -20 -11 5 -20 -4 -20 -20 -20 -20 -20 -20 -20 -20 10 -20 -20 -20 -7 -20 -20 -20 -20
25 38 37 32 29 31 -1 4 4 -15 -20 -20 -20 -20 -20 -20 -20 25 -20 -20 -20 -20 -20 -20 -20 -20 -20 -20 -20 -20 -20 -20 -20 -19 -12 -20 8 9 -20 -20 -20 -20 -19 -20 -20 -20 -20 -20 -20 -20 -20 -20 -20 -20
35 26 28 35 12 8 -4 -12 -20 -20 -20 -20 -13 -20 -20 -20 -20 19 -20 -20 -20 -20 -20 -20 -20 -20 -20 -20 -20 -20 -20 -20 -20 -20 -20 -20 23 -20 -12 -20 -20 -20 -20 -20 -20 -20 -20 -20 -20 -20 -20 -20 -20 -20
19 2 1 -9 -12 -15 -20 -19 -20 -18 -8 10 6 -20 -20 -20 -20 -20 -20 -20 9 -19 18 -20 -20 -20 -20 -20 -20 -20 -20 -20 -20 -20 -20 -12 20 -20 -20 -20 -20 -20 -20 -20 -20 -20 -20 -20 -20 -20 -20 -20 -20 -20
15 5 7 5 -6 1 15 10 12 20 21 13 -7 -20 -20 -20 -20 -20 -20 -16 12 -14 -9 -20 -20 -20 -20 -20 -20 -20 -20 -20 -20 -20 19 -7 -20 -20 -20 -20 -20 -20 -20 -20 -20 -20 -20 -20 -20 -20 -20 -20 -20 -20
8 9 -1 12 12 -3 1 -1 24 26 -20 -20 -20 -20 -20 -20 -20 -20 2 -20 -8 -20 -20 -11 -20 -20 -20 -20 -20 -20 -20 -20 -20 -20 -3 -20 -20 -20 9 -20 -20 -20 -20 -20 -20 -20 -20 -20 -20 -20 -20 -20 -20 -20
3 -1 -6 -20 -14 -19 -20 -20 23 31 -20 -20 -20 -20 -20 -20 -20 -20 4 18 -3 -20 -20 -11 -20 -20 -20 -20 -20 -20 -20 -20 -20 -20 -20 -20 -20 -20 -1 -20 -20 -20 -20 -20 -20 -20 -20 -20 -20 -20 -20 -20 -20 -20
9 -5 -5 5 9 15 -20 -20 -8 6 10 19 -10 23 3 -20 -20 21 12 3 -20 -20 -20 -14 -5 -20 -20 -20 -20 -20 -20 -20 -20 -20 -20 -20 -13 -20 -20 -20 -20 -20 -20 -20 -20 -20 -20 -20 -20 -20 -20 -20 -10 -20
-20 -13 8 6 6 13 7 -20 -20 -15 4 -13 -2 -3 24 17 23 -15 -4 -18 -19 -20 -20 17 -5 16 -20 -20 -20 -20 -20 -20 -20 1 -20 -20 -19 -19 -20 -20 -20 -20 -20 -20 -20 -20 -20 -20 -7 -16 -20 -20 -20 -5
-20 -3 12 -19 9 26 -16 -20 19 2 -20 -20 -20 -20 -17 -18 -20 -17 -14 -20 -20 -20 -20 -20 -19 -20 -20 -20 -7 -20 -20 -20 -20 -6 -20 -1 -20 -4 -20 -6 -20 -20 -20 -20 -20 -14 -14 -20 -17 -8 -10 -19 -19 -20
-10 -16 -2 21 31 -14 -18 24 -6 -1 -20 7 -14 1 -15 -19 -8 -19 -19 -20 -20 0 -20 -20 -12 -20 -20 -20 -7 -20 -3 -20 -18 -20 -4 -17 -20 -13 -14 -4 -8 -7 -6 -12 -20 -20 -20 -20 -20 -20 -20 -20 -20 -20
6 -7 4 21 17 27 9 -20 -19 -9 -19 -20 -20 -20 -20 -20 -20 -4 -20 -20 -20 -19 -20 -20 -20 -20 -12 -20 -20 -20 -9 -20 -4 -20 4 2 -2 -7 -9 -6 -20 -20 -20 -20 -20 -20 -20 -20 -20 -20 -20 -20 -20 -20
2 -20 -20 -20 -20 -18 20 29 -20 -2 -20 -20 -20 -20 -18 2 6 15 -18 -20 1 -9 1 5 6 -20 -20 -20 -5 -7 -3 -4 -20 4 -16 -20 -4 2 3 -20 -20 -20 -20 -20 -20 -20 -20 -20 -20 -20 -20 -20 -20 -20
3 11 11 -10 -20 -20 -20 -6 26 26 20 24 27 21 14 11 -20 -17 -4 -19 -20 -20 -20 -20 -18 -20 -20 -4 -2 -13 -13 -8 -6 1 -5 -1 -3 -2 -19 -4 -20 -20 -20 -20 -20 -20 -20 -20 -20 -20 -20 -20 -20 -20
-20 -20 7 11 15 -2 -11 -20 -20 -17 -7 -10 -20 -15 -20 -10 -19 0 -20 -16 -16 -16 -14 -20 -20 -17 -20 -15 -20 -18 -14 -12 -8 -3 -16 -12 9 -1 10 -20 -20 -20 -20 -20 -20 -20 -20 -20 -20 -20 -20 -20 -20 -20
-20 -17 5 11 17 7 14 22 13 8 11 6 -1 -2 11 -12 -9 -3 8 2 -10 -17 -20 -11 -17 2 -11 -7 -16 -3 -20 -20 -14 -0 -14 -2 20 17 -11 -20 -20 -20 -20 -20 -20 -20 -20 -20 -20 -20 -20 -20 -20 -20
-20 -15 -17 -18 -20 -20 3 4 -19 -18 5 13 15 29 28 24 12 24 23 25 20 24 21 17 6 -19 -20 -13 -20 -20 3 -19 -0 2 -1 -20 -20 -13 -9 4 -20 -20 -20 -20 -20 -20 -20 -20 -20 -20 -20 -20 -20 -20
-20 -20 -20 -19 -10 -20 -11 -10 -5 -2 -3 3 0 -4 -10 -5 5 -9 -19 -20 -20 -20 -16 -18 -20 -20 -15 -20 -20 -20 -14 -16 -16 -11 -1 11 19 15 2 -20 -20 -20 -20 -20 -20 -20 -20 -20 -20 -20 -20 -20 -20 -20
-20 -20 -20 -20 -20 -20 -20 -20 -20 -20 -17 -7 -5 -13 -13 -5 -3 -18 -6 -20 -20 -20 -20 -20 -20 -20 -20 -20 -12 -20 -20 -15 3 -6 -18 11 11 -18 -20 -20 -20 -20 -20 -20 -20 -20 -20 -20 -20 -20 -20 -20 -20 -20
-20 -20 -20 -20 -20 -20 -20 -20 -14 -20 -20 -16 -9 -20 -20 -20 -20 -1 -4 -20 -20 -20 -20 -20 -10 -20 -20 -20 -20 -20 -20 -10 -20 -20 -20 -20 -20 -20 -20 -20 -20 -20 -20 -20 -20 -20 -20 -20 -20 -20 -20 -20 -20 -20
-20 -20 -20 -20 -20 -20 -20 -20 -20 -20 -20 -20 -20 -20 -20 -20 -20 -20 -20 -20 -20 -20 -20 -20 -20 -20 -20 -20 -20 -20 -20 -20 -20 -20 -20 -20 -20 -20 -20 -20 -20 -20 -20 -20 -20 -20 -20 -20 -20 -20 -20 -20 -20 -20
-20 -20 -20 -20 -20 -20 -20 -20 -13 -20 6 -15 -17 -20 -20 5 -4 4 -20 5 -20 -7 -19 -17 -7 -14 -20 -20 -20 -20 -20 -20 -20 -20 -20 -19 -20 -20 -20 -20 -20 -20 -20 -20 -20 -20 -20 -20 -20 -20 -20 -20 -20 -20
-20 -20 -20 -20 -20 -20 -20 -20 -20 -20 -12 -20 -20 -17 -8 8 -9 -20 -8 1 1 3 5 -2 -14 6 7 6 0 -15 -20 -20 -20 -20 -16 -20 -20 -20 -20 -20 -20 -20 -20 -20 -20 -20 -20 -20 -20 -20 -20 -20 -20 -20
-20 -20 -20 -20 -20 -20 -20 -13 -20 -20 -20 -20 -20 -20 -19 -16 -19 1 -12 -3 -5 -15 -17 7 -17 -14 1 5 9 14 19 17 7 -7 8 7 -3 -4 -20 -20 -20 -20 -20 -20 -20 -20 -20 -20 -20 -20 -20 -20 -20 -4
-20 -20 -20 -20 -20 -20 -20 -20 -20 -20 -20 -20 -20 -20 -20 -20 -12 -20 -4 -11 -1 -18 -17 -9 -15 2 7 12 17 15 14 13 8 4 -2 -13 -20 -20 -20 -20 -20 -20 -20 -20 -20 -20 -20 -20 -20 -20 -20 -6 -20 -20
-20 -9 -19 -20 -20 -20 -20 -20 -20 -20 -20 -20 -20 -20 -20 -3 -20 -20 -20 -0 2 -19 -20 -17 4 -3 -8 -5 -8 -14 -5 7 8 -3 -20 -20 -20 -20 -20 -20 -20 -20 -20 -16 -20 -20 -20 -20 -20 -20 -20 -20 -14 -4
-20 -20 -20 -20 -20 -20 -20 -20 -20 -14 -20 -20 -20 -20 -13 -20 -20 -12 -1 -8 -4 -20 -20 -20 -20 -20 -20 -15 -6 -6 -14 -19 -18 -18 -20 -20 -20 -20 -20 -20 -20 -20 -20 -20 -20 -20 -20 -20 -20 -17 -17 -3 -2 -2
-20 -20 -20 -20 -20 -20 -20 -20 -20 -20 -20 -20 -11 -20 -20 -20 -20 -4 -4 -1 -4 -20 -20 -20 -20 -20 -20 -20 -20 -20 -20 -20 -20 -20 -20 -20 -20 -20 -20 -20 -20 -20 -20 -20 -20 -20 -20 -6 -2 -2 -2 -18 -20 -4
-20 -20 -20 -20 -20 -20 -20 -20 -9 -19 -20 -16 -20 -20 -20 -20 -20 -20 -20 -20 -20 -19 -20 -20 -20 -20 -20 -20 -20 -20 -20 -20 -20 -20 -20 -20 -20 -20 -18 -20 -20 -20 -20 -20 -20 -20 -12 -1 -2 -12 -20 -20 -20 -18
-17 -20 -20 -20 -20 -20 -19 -20 4 -17 -20 -20 -20 -20 -20 -20 -20 -20 -20 -20 -20 -20 -20 -20 -20 -20 -20 -20 -20 -20 -20 -20 -20 -20 -20 -20 -20 -18 -3 -2 -13 -13 -20 -20 -20 -20 -20 -20 -20 -20 -20 -20 -20 -20
-20 -20 -20 -20 -20 -20 -13 -20 -20 -17 -19 -20 -20 -20 -20 -20 -8 -20 -20 -20 -20 -20 -20 -20 -20 -20 -20 -20 -20 -20 -20 -20 -20 -20 -20 -20 -20 -17 -1 -14 -1 -16 -20 -20 -20 -20 -20 -20 -20 -20 -20 -20 -20 -20
-20 -20 -20 -20 -20 -20 -20 -20 -20 -19 -5 -20 -20 -20 -20 -20 -20 -19 -20 -20 -20 -20 -20 -20 -20 -20 -20 -20 -20 -20 -20 -20 -20 -20 -20 -20 -20 -2 -10 -20 -20 -20 -20 -20 -20 -20 -20 -20 -20 -20 -20 -20 -20 -20
-20 -20 -20 -20 -20 -20 -20 -20 -20 -20 -20 -20 -20 -20 -20 -20 -20 -20 -20 -20 -20 -20 -20 -20 -20 -20 -20 -20 -20 -20 -20 -20 -20 -20 -20 -20 -20 -20 -20 -20 -20 -20 -20 -20 -20 -20 -20 -20 -20 -20 -20 -20 -20 -20

GFSWCAN_prec_radar_027.txt.gz
Reflectivity
-20 -20 -20 -16 -6 7 9 22 29 20 24 24 -2 19 -15 -20 -3 5 -20 -20 -20 -20 -20 -20 -20 -20 -20 -20 -20 -20 -20 -20 -20 -20 -20 -20 -9 -20 -20 -20 -20 -20 -20 -20 -20 -5 -20 -20 -20 -20 -20 -20 -20 -20
8 9 18 29 32 24 39 25 22 29 28 36 32 23 3 -20 14 25 -0 -20 -20 -20 -20 -20 -20 -20 -20 -20 -20 -20 -20 -20 -20 -19 -20 -20 -2 6 -20 -20 -20 -20 -20 -20 -20 -20 -20 -20 -20 -20 -20 -20 -20 -20
22 32 25 24 31 30 27 33 27 30 33 22 15 9 -12 6 18 25 13 -20 -20 -20 -20 -20 -20 -20 -20 -20 -20 -20 -20 -20 -20 -20 -20 -20 14 -20 -2 -20 -20 -20 -20 -20 -20 -20 -20 -20 -20 -20 -20 -20 -20 -20
29 32 30 26 25 29 37 28 -6 -0 -19 -20 -20 -13 11 10 4 26 -20 -20 -20 -20 12 -14 -20 -20 -20 -20 -20 -20 -20 -20 -20 -20 -20 -7 4 -20 -20 -20 -20 -20 -20 -20 -20 -20 -20 -20 -20 -20 -20 -20 -20 -20
29 31 36 27 18 18 21 17 7 7 9 9 -9 -20 -20 -16 14 18 -20 1 -20 -20 -11 1 -20 -20 -20 -20 -20 -20 -20 -20 -20 -20 16 -8 -20 -20 -20 -20 -20 -20 -20 -20 -20 -20 -20 -20 -20 -20 -20 -20 -20 -20
31 25 13 12 12 11 10 4 -8 -11 -20 -20 -20 -20 -20 8 2 -20 23 -20 -20 -20 -15 10 -20 -20 -20 -20 -20 -20 -20 -20 -20 -20 -20 -20 -20 -20 2 -20 -20 -20 -20 -20 -20 -20 -20 -20 -20 -20 -20 -20 -20 -20
12 15 14 16 18 23 3 -16 -20 -14 -20 -13 -14 -20 -20 18 -20 -9 -20 -20 20 -8 21 5 -20 -20 -20 -20 -20 -20 -20 -20 -20 -20 -20 -20 -20 -20 -20 -13 -20 -20 -20 -20 -20 -20 -14 -20 -20 -20 -20 -20 -20 -20
17 22 13 -17 6 20 20 21 20 -10 -20 -20 -20 -20 -20 -20 0 16 -20 -20 25 -4 -20 4 -12 4 -20 -17 -3 -20 -20 -20 -20 -20 -20 -20 -20 -20 -20 -20 -20 -20 -20 -20 -20 -20 -20 -20 -20 -20 -20 -20 -20 -20
2 -4 -20 -20 -20 3 22 15 -20 -20 -20 -20 -20 -20 -20 -20 -20 -20 -20 11 -14 -10 -20 13 9 2 -11 -13 -16 10 -20 -20 -19 3 -18 -20 -6 -20 -20 -20 -20 -20 -20 -20 -20 -20 -20 -20 -9 -20 -20 -20 -20 -20
15 36 28 -19 -16 -1 28 19 21 21 24 -19 -19 -18 22 -1 -18 -4 19 34 20 -20 -20 -20 -20 -20 -15 -9 -6 -20 -10 -20 -20 -20 -12 1 -20 -9 -20 -20 -20 -20 -20 -20 -20 -20 -20 -20 -20 -20 -20 -20 -20 -20
2 5 21 26 11 -20 -19 16 -0 -20 -20 -20 0 6 2 -12 6 19 28 14 11 -20 -19 -18 -20 -20 -20 -20 -17 -20 4 -9 -20 -12 -11 -14 -19 -16 -11 -20 -7 -9 -20 -20 -20 -20 -16 -18 -9 -20 -20 -8 -20 -20
-9 20 8 22 25 -3 -15 -16 -10 -20 -20 -13 -6 30 35 28 11 5 -4 -3 -20 -13 -10 -5 -7 -20 -20 -20 -13 -12 -20 -19 1 -11 10 -7 -19 -11 -20 -3 0 -20 -13 -6 -7 -15 -20 -20 -20 -20 -20 -20 -20 -20
14 25 12 17 30 15 25 7 -20 -20 -20 -18 3 -10 -18 9 15 -7 -5 -13 -18 -20 0 10 12 -0 -4 -20 -1 -5 -6 1 -20 -4 -7 -19 -20 -2 -3 1 -20 -20 -20 -20 -20 -20 -20 -20 -20 -20 -20 -20 -20 -20
-20 -20 -20 -20 -17 2 22 17 -9 1 12 9 17 27 12 4 -13 -4 -4 1 -14 -18 -6 -0 -18 -2 -6 -11 0 8 1 -10 1 10 4 -12 -13 -1 -0 -20 -20 -20 -20 -20 -20 -20 -20 -20 -20 -20 -20 -20 -20 -20
-9 -12 -10 -20 -20 -20 -20 15 26 5 -3 -3 -18 -11 -14 -7 -1 1 -4 -15 -20 -20 -20 -10 -20 -12 -11 10 1 -9 -8 -1 -6 2 -5 -16 -3 2 -10 -19 -20 -20 -20 -20 -20 -20 -20 -20 -20 -20 -20 -20 -20 -20
-20 -20 7 15 -1 -18 -20 -20 -13 7 15 15 1 1 5 -1 0 -1 5 6 -3 -7 -20 -20 -1 6 -10 -6 -20 2 8 9 -1 -1 -10 -13 -15 2 -2 -20 -20 -5 -14 -20 -20 -20 -20 -20 -20 -20 -20 -20 -20 -20
-20 -20 -20 -18 -15 22 15 15 9 -1 4 3 16 26 24 7 -2 7 8 3 -3 -9 8 -9 3 -3 -6 3 -3 8 10 -4 -2 4 -11 -16 -2 2 -19 -2 -20 -20 -20 -20 -20 -20 -20 -20 -20 -20 -20 -20 -20 -20
-20 -20 -20 -20 -14 2 5 1 11 13 17 14 4 2 4 24 19 12 14 12 17 22 24 25 20 25 23 9 10 2 -12 -11 -17 -20 -19 -3 3 -2 2 -16 -20 -20 -20 -20 -20 -20 -20 -20 -20 -20 -20 -20 -20 -20
-20 -20 -20 -20 -20 -20 -5 3 -14 6 4 13 17 6 3 6 3 -11 -12 -10 -20 -20 -20 -19 6 1 12 8 -3 -6 -1 -18 -19 -19 3 18 17 3 -16 -19 -20 -20 -20 -20 -20 -20 -20 -20 -20 -20 -20 -20 -20 -20
-20 -20 -20 -20 -20 -20 -20 -20 -20 -20 2 1 5 -6 -0 1 -9 10 -18 -20 -20 -8 -16 -18 -3 -19 -2 -20 2 6 -14 -20 -20 -20 -20 -8 7 -7 -15 -18 -20 -20 -20 -20 -20 -20 -20 -20 -20 -20 -20 -20 -20 -20
-20 -20 -20 -20 -20 -20 -20 -17 -20 -3 -5 -0 -20 -20 -3 -20 -2 0 -20 -20 -20 7 4 12 9 2 -20 -20 -20 5 12 1 -6 -20 -20 -20 -20 -19 -20 -20 -20 -20 -20 -20 -20 -20 -20 -20 -20 -20 -20 -20 -20 -20
-20 -20 -20 -20 -20 -20 -20 -18 -0 -0 4 7 -6 -2 7 11 -3 2 -5 4 2 6 7 8 -2 9 -17 -16 -15 -20 13 19 18 14 9 5 -16 -16 -7 -12 1 -13 -20 -20 -20 -20 -20 -20 -20 -20 -20 -20 -20 -20
-20 -20 -20 -19 -17 -20 -20 -18 -10 1 7 -2 -1 7 9 10 -7 -4 8 7 3 -3 5 -5 -7 -2 -2 -0 -14 6 3 -8 -9 -1 0 4 6 9 8 7 -1 -14 -20 -20 -20 -20 -20 -20 -20 -20 -20 -20 -20 -5
-20 -20 -19 -20 -20 -20 -8 -20 -20 -3 -1 -1 1 6 -20 -5 -6 11 5 -5 -10 -16 -17 1 -16 -14 -5 -20 -20 -17 3 9 11 20 18 10 11 10 -9 -20 -20 -20 -20 -20 -20 -20 -20 -20 -20 -20 -20 -20 -8 -6
-20 -20 -20 -20 -20 -20 -20 -7 -5 -2 -2 -2 -8 1 -5 -10 10 -2 1 -4 1 -8 -3 6 -12 -6 -2 -2 -3 -6 1 6 -1 -9 -1 -1 -9 -19 -20 -20 -20 -20 -20 -20 -20 -20 -20 -20 -20 -12 -20 -6 -6 -5
-20 -11 -20 -3 -10 -17 -4 -0 -3 -2 -1 2 -15 -8 -4 11 2 -1 -2 3 3 -2 1 -1 6 -2 -20 -20 -18 -20 -20 -3 -13 -20 -17 -20 -20 -20 -20 -20 -20 -20 -20 -6 -4 -15 -20 -20 -20 -20 -20 -5 -2 1
-20 -10 -10 -20 -20 -20 1 -10 -3 -9 -17 -11 -16 -19 -1 7 -1 -2 -4 0 2 -1 -2 -3 -3 -5 -3 -10 -20 -3 -8 -20 -20 -20 -20 -20 -20 -20 -20 -20 -20 -20 -20 -16 -13 -4 -10 -20 -12 -7 -2 1 3 2
-20 -15 -6 -20 -18 -13 -1 -1 -3 -19 -20 -5 -1 -3 -3 -1 -10 1 -0 5 1 -1 -3 -13 -20 -20 -19 -5 2 3 -6 -20 -20 -20 -20 -20 -20 -20 -20 -10 -5 -20 -20 -5 -20 -16 -3 -2 -1 2 2 2 -0 2
-3 -2 -18 -20 -13 -3 -4 -20 -20 -8 -5 -3 -6 -3 -6 -13 -0 3 1 2 3 6 2 1 0 -1 -2 -18 -20 -20 -12 -20 -20 -20 -20 -20 -20 -7 -18 -5 -4 -2 -2 -1 -17 -4 -2 -2 0 0 0 1 2 3
-5 -2 -4 -20 -20 -2 -20 -14 9 -20 -20 -5 -17 -20 -20 -2 2 2 -0 -1 -2 -2 -2 -2 -1 0 -9 -1 -8 -20 -20 -20 -20 -20 -20 -20 -20 -8 -5 -0 0 2 1 2 1 -0 -10 -0 -1 1 2 1 2 -1
-0 -3 -1 -1 -6 -20 -4 -3 -2 -7 -5 -8 -4 -4 -9 -2 2 -0 -3 -2 -3 -0 2 -1 -20 -5 -20 -20 -20 -20 -20 -11 -20 -20 -20 -20 -5 -2 1 2 2 3 2 2 1 1 1 -2 1 1 0 -2 -3 -8
1 -2 -16 -20 1 -9 -4 -6 -2 9 4 3 -2 -4 -1 1 -3 1 -4 3 4 -1 -20 -4 -4 -20 -20 -20 -20 -5 -20 -20 -20 -20 -20 -7 -3 0 1 2 0 1 1 1 1 1 1 -0 -0 -1 -1 -2 -19 -20
-1 -1 -6 -2 0 1 -1 -10 -18 -3 0 -1 -1 -2 -3 -0 -11 1 -2 0 1 1 0 1 0 -1 -18 -20 -20 -20 -20 -13 -20 -17 -20 -20 -20 -17 -8 1 2 1 1 1 0 1 0 -1 -2 -4 -20 -20 -20 -20

GFSWCAN_prec_radar_030.txt.gz
Reflectivity
8 -20 -20 -20 -2 -4 -20 -20 -20 -20 -20 11 -6 -20 15 23 -14 3 -5 39 36 26 6 -20 -20 -20 0 10 -14 -20 -13 -20 0 -20 -13 -20 -20 -20 -20 -20 -20 -20 -20 -20 -20 -20 -20 -20 -20 -20 -20 -20 -20 -20
-3 -20 -20 -20 -20 -20 -20 -20 -20 -20 -20 2 -4 12 16 13 -6 7 -9 -19 27 42 25 -13 10 -20 -20 21 -18 -20 -20 -20 -20 -19 -12 -5 -3 3 -20 -20 -20 -20 -20 -20 -20 -20 -20 -20 -20 -20 -20 -20 -20 -20
-19 -14 5 0 -20 -20 -14 9 -20 -20 -19 19 27 -4 14 20 13 19 30 34 48 34 -14 -20 -20 -20 -20 -20 -19 -19 -20 -20 -20 -20 -20 -20 4 -20 -19 -20 -20 -20 -20 -20 -20 -20 -20 -20 -20 -20 -20 -20 -20 -20
10 13 17 12 11 13 9 10 -14 10 20 33 19 10 25 17 -20 8 37 30 36 15 -2 -15 -20 -20 -20 -20 -20 -20 -20 -20 -20 -20 -20 -3 7 -20 -20 -20 -20 -20 -20 -20 -20 -20 -20 -20 -20 -20 -20 -20 -20 -20
21 30 31 27 28 31 29 29 18 10 27 27 24 9 9 -3 17 36 14 24 -17 -20 -12 -11 -20 -20 -20 -20 -20 -20 -20 -20 -20 -20 9 8 -20 -20 -20 -20 -20 -20 -20 -20 -20 -20 -20 -20 -20 -20 -20 -20 -20 -20
27 22 23 22 24 22 25 24 21 15 18 33 30 -2 -14 6 20 24 26 -1 26 -20 9 5 -20 -20 -20 -20 -20 -20 -20 -20 -20 -20 -19 -20 -20 -20 -20 -20 -20 -20 -20 -20 -20 -20 -20 -20 -20 -20 -20 -20 -20 -20
33 29 32 30 10 9 15 27 21 26 31 -13 -15 -20 -0 15 11 27 -16 -20 11 -20 -18 -14 -17 -20 -20 -20 -20 -20 -20 -20 -20 -20 -20 -20 -20 -20 -2 4 -20 -20 -20 -20 -20 -20 -20 -20 -20 -20 -20 -20 -20 -20
37 32 25 20 -4 -19 -14 5 8 -9 -1 10 18 18 21 13 41 21 -4 -10 -20 -20 -16 -2 11 6 -20 14 -20 -20 -1 -15 -20 -20 -20 -20 -20 -20 -2 -20 -20 -20 -20 -20 -20 -20 -20 -20 -20 -20 -20 -20 -20 -20
18 20 22 25 18 20 12 -14 -16 -16 -15 -17 -19 -6 26 31 28 11 8 -15 -20 3 15 10 -15 8 -20 -20 -20 -20 -15 -17 -20 -19 -20 -20 -20 -20 -20 -20 -20 -20 -20 -20 -20 -20 -20 -20 -20 -20 -20 -20 -20 -20
25 13 -15 14 17 25 29 26 6 -4 18 -20 11 20 30 25 27 -19 -20 -16 6 31 -8 -12 -20 1 -16 -13 16 -16 -8 17 -18 -6 -20 1 -20 -20 -20 -20 -20 -20 -20 -20 -20 -20 -20 -20 -20 -20 -20 -20 -20 -20
26 20 19 25 6 -3 -20 14 17 15 10 18 22 23 31 6 -5 -2 -7 -20 -8 11 -20 -20 -16 -5 -20 19 16 9 14 16 -20 -20 -20 -20 -20 -20 -20 -20 -20 -20 -20 -20 -20 -20 -20 -20 -20 -20 -20 -20 -20 -20
27 28 21 23 16 8 10 -11 -18 -20 -2 -1 -19 -20 -20 -13 31 -8 -1 -13 -8 -11 -20 -13 -11 -9 -8 -20 -20 -20 -20 -20 -20 -13 6 4 -20 -20 -20 -20 -20 -20 -20 -20 -20 -20 -20 -20 -20 -20 -20 -20 -20 -20
19 25 23 6 12 9 6 5 -18 -20 -11 2 12 -2 -13 5 14 2 -15 21 1 0 -1 10 3 -10 -7 -20 -4 -20 -20 1 -20 -0 -19 -20 -19 -20 -18 -20 -20 -20 -20 -20 -20 -20 -20 -20 -20 -20 -20 -20 -20 -20
-20 7 31 24 1 8 -0 -20 -20 -20 -11 -4 3 -18 13 14 -8 -20 -6 6 -8 5 -3 -19 -18 -10 6 -4 7 -20 -18 -20 -13 -5 -10 -20 -20 -13 -7 -20 -20 -20 -20 -20 -20 -20 -20 -20 -20 -20 -20 -20 -20 -20
-12 -20 3 6 23 24 7 -2 -20 -20 -20 13 26 20 14 6 1 0 0 -13 -7 -20 -20 -13 -4 -7 -18 -11 -16 -20 -11 -14 -5 -5 -16 -20 -16 -7 -17 -16 -20 -20 -20 -19 -12 -20 -20 -20 -20 -20 -20 -20 -20 -20
-14 -20 -20 -20 -20 -0 20 28 23 -2 18 15 -1 -7 12 7 6 -1 -2 1 -18 -20 -12 -13 -0 -13 -7 -20 -20 1 7 3 -3 -7 -5 -17 -3 9 -1 -20 -17 -9 -12 -20 -20 -20 -20 -20 -20 -20 -20 -20 -20 -20
-20 -20 11 10 -18 -3 -20 -20 15 23 24 24 20 25 27 17 6 8 16 14 22 8 3 -20 -12 -7 -19 -11 -20 -3 -5 1 -11 13 16 19 13 3 -6 -20 -20 -20 -20 -5 -19 -20 -20 -20 -20 -20 -20 -20 -20 -20
-20 -20 -20 -20 -20 -20 -20 -19 -13 -3 10 26 17 30 28 29 27 25 19 1 -7 -11 -8 -9 -7 17 11 12 11 25 27 23 17 1 -10 -5 10 1 -19 -12 -14 -6 -20 -20 -20 -20 -20 -20 -20 -20 -20 -20 -20 -20
-20 -20 -20 -20 -20 -20 -20 -7 2 5 14 26 30 22 18 19 4 -1 -10 -10 -9 8 17 27 10 3 9 14 16 26 11 -18 -20 -18 -3 12 4 15 7 -11 -18 -19 -20 -20 -20 -20 -20 -20 -20 -20 -20 -20 -20 -20
-20 -20 -20 -20 -20 -20 -20 -19 -8 7 13 20 19 11 -4 1 -16 8 -20 -20 -20 -19 -8 -0 5 12 5 2 -4 19 14 -15 -19 -7 -11 22 7 -8 1 7 -20 -20 -20 -20 -20 -20 -20 -20 -20 -20 -20 -20 -20 -20
-20 -20 -20 -20 -20 -20 -20 -10 -11 1 -20 -5 3 6 6 1 -4 4 0 -20 -20 -1 10 7 10 -3 -6 -14 4 14 -8 17 26 14 -19 1 -4 -0 -11 -16 -19 -18 -20 -20 -20 -18 -20 -20 -20 -20 -20 -20 -20 -20
-20 -20 -20 -20 -20 -20 -20 -20 2 -11 -20 -13 -20 -1 1 -11 -5 5 9 -11 2 9 10 1 -3 -5 -16 -11 -16 -4 18 10 13 12 22 13 2 3 -2 1 -12 -16 -13 -3 -19 -20 -20 -20 -20 -20 -20 -20 -20 -9
-20 -20 -20 -20 -20 -20 -20 -20 -20 -12 -5 1 2 -1 4 5 2 4 1 3 10 6 12 10 -19 -20 -20 -9 -17 -17 -18 -0 9 12 16 13 6 7 14 12 10 5 -3 -7 -20 -20 -20 -20 -20 -20 -14 -20 -13 1
-20 -20 -20 -20 -20 -20 -19 -20 -20 -3 -5 -20 -4 5 -20 -15 -17 5 0 8 2 -20 0 -0 -14 13 -20 -20 -20 -17 5 -3 -7 -7 3 -4 -8 8 10 7 3 -8 -20 -20 -20 -20 -20 -18 -20 -20 -17 -20 -3 -2
-20 -20 -20 -20 -19 -20 -20 -2 1 -2 -20 -14 9 6 5 -19 7 2 3 9 -5 -8 -4 -9 -4 -20 -4 3 -2 -2 -3 -4 -15 -15 -3 6 -8 -9 -20 -20 -20 -20 -20 -20 -20 -20 -20 -20 -20 -20 -20 -5 -6 -3
-17 -11 -20 -5 -20 -10 -3 -11 -9 -20 -20 -1 -20 -14 -12 13 7 2 -2 7 -4 2 2 -1 0 -4 -20 -20 -20 -14 -20 -7 -11 -20 -20 -19 -20 -20 -20 -20 -20 -20 -20 -20 -20 -20 -20 -20 -20 -20 -20 -14 -2 2
-20 -4 -20 -20 -20 -20 -20 -20 -5 4 4 4 3 -13 5 12 -3 2 0 -4 1 3 -7 -7 -5 -3 -1 -3 -10 -5 -20 -20 -20 -20 -20 -20 -20 -20 -20 -20 -20 -20 -20 -20 -20 -19 -17 -10 -10 -4 -2 1 4 -8
-2 -18 -20 -20 -20 -20 -20 -20 -20 -14 5 -20 -5 -12 -17 -19 -5 4 6 5 7 -3 -15 -6 -17 -18 -18 -2 1 -4 -20 -14 -20 -20 -20 -20 -20 -20 -20 -11 -20 -20 -19 -18 -6 -14 -6 -4 -4 -2 3 -1 -10 2
-20 -20 -20 -20 -20 -13 -20 -20 3 -13 -0 -7 -5 -8 -6 -14 -1 2 2 8 9 9 0 5 6 3 -15 -20 -9 -8 -20 -20 -20 -20 -20 -20 -20 -6 -20 -20 -6 -4 -2 -2 -18 -5 2 -8 -2 1 -3 -2 -6 -2
-12 -16 -7 -20 -20 0 -19 -13 8 -17 -10 -17 -20 -20 -4 -0 4 -1 -3 -3 0 1 3 3 2 -20 -9 -3 -8 -20 -20 -20 -20 -20 -20 -20 -20 -20 -4 0 -2 -2 2 -1 -1 -0 -14 -3 -14 -12 3 5 4 -9
-20 -20 -10 -10 1 -15 -15 -20 3 -20 2 -1 -20 -18 -9 -3 3 1 -0 7 1 -11 8 5 -12 -6 -18 -20 -20 -20 -9 -17 -20 -20 -20 -20 -20 -3 0 1 1 3 1 2 1 -0 1 2 0 0 1 -1 -14 -5
-1 -6 -18 -18 7 3 -20 -20 -18 14 10 9 2 -9 -0 7 -4 -1 -6 -4 7 -0 -20 -3 -7 -3 -16 -19 -16 -6 -20 -20 -7 -20 -20 -20 -20 -9 -2 -4 -5 4 5 3 1 1 3 3 1 1 0 1 -19 -20
-7 -4 -7 -4 2 9 5 -3 3 2 2 4 -2 2 -20 -8 -12 1 3 -1 -2 1 2 1 1 0 -6 -17 -20 -20 -20 -12 -20 -16 -1 -13 -20 -18 -11 -2 -4 -5 -6 -0 -2 -0 0 2 3 1 -8 -17 -7 -20

GFSWCAN_prec_radar_033.txt.gz
Reflectivity
-20 -20 -20 -20 -20 -20 10 26 15 18 31 24 31 19 12 6 -17 6 30 15 19 24 -20 3 -20 -20 -12 -20 -20 -20 25 24 -20 18 -14 -20 -20 -20 -20 -20 -20 -20 -20 -20 -20 -20 -20 -20 -20 -20 -20 -20 -20 -20
-20 -20 -20 -20 -20 7 13 -17 16 15 -17 -20 -16 -20 -17 -17 -20 -17 18 17 10 28 23 23 -10 -20 -13 -20 -20 -20 14 8 -20 -20 -20 -20 -20 -20 -20 -20 -20 -20 -20 -20 -20 -20 -20 -20 -20 -20 -20 -20 -20 -20
-20 -20 -20 -20 -4 -15 -17 -13 -20 -20 -20 -20 -20 -20 -20 -20 5 -10 17 19 23 16 16 21 16 -20 26 17 -20 11 -20 0 -20 -20 -20 -20 -20 -20 -20 -20 -20 -20 -20 -20 -20 -20 -20 -20 -20 -20 -20 -20 -20 -20
-20 -20 -20 -20 -20 -20 -20 -20 -20 -20 -8 0 -20 -20 -20 -20 1 31 20 7 28 39 18 7 5 -1 -20 -20 -20 -20 -16 3 -20 -20 -20 -20 -20 -20 -20 -20 -20 -20 -20 -20 -20 -20 -20 -20 -20 -20 -20 -20 -20 -20
-20 -20 -20 -20 -20 -20 -19 -20 -8 -20 -20 -20 -20 -20 -20 -4 12 18 18 24 28 38 42 43 9 11 10 -19 14 17 -13 -17 -20 -20 -20 -20 -20 -20 -20 -20 -20 -20 -20 -20 -20 -20 -20 -20 -20 -20 -20 -20 -20 -20
-3 -7 -2 -14 -20 -20 -20 -20 -20 -20 -20 -20 -20 -20 9 21 22 28 17 35 43 39 42 37 22 -14 7 19 -20 16 26 -20 -20 -20 -13 -20 -20 -20 -20 -20 -20 -20 -20 -20 -20 -20 -20 -20 -20 -20 -20 -20 -20 -20
16 -13 -20 -18 -20 -3 -2 -17 -17 -3 1 4 -12 -3 31 23 20 29 39 34 32 33 25 14 8 24 21 -20 -20 -20 -18 -20 -20 -20 -20 -20 -20 -20 -20 -20 -20 -20 -20 -20 -20 -20 -20 -20 -20 -20 -20 -20 -20 -20
29 25 19 10 1 1 22 26 27 25 15 18 19 18 24 22 23 41 36 30 22 27 -2 -16 -8 -2 3 3 -4 -20 1 -20 -20 -20 -20 -20 -20 -20 -20 -20 -20 -20 -20 -20 -20 -20 -20 -20 -20 -20 -20 -20 -20 -20
25 24 21 13 18 19 19 26 28 26 28 28 15 12 25 38 34 43 35 25 15 11 -5 -5 -19 -16 -4 -20 -18 -20 -14 -4 -20 -13 -16 -20 -20 -20 -20 -20 -20 -20 -20 -20 -20 -20 -20 -20 -20 -20 -20 -20 -20 -20
16 17 20 17 5 -8 -8 -5 16 16 0 16 10 37 49 32 26 20 7 -5 -11 -20 -20 -20 -20 -20 -20 -20 -18 -16 -7 -20 -20 -20 -20 -20 -20 -20 -20 -20 -18 -20 -20 -20 -20 -20 -20 -20 -20 -20 -20 -20 -20 -20
14 16 32 15 13 13 15 17 13 15 22 23 35 14 21 26 12 0 -16 3 -20 -20 -20 -9 8 -10 -20 -20 -8 -15 6 -13 -16 -1 -14 -20 -20 -9 14 -2 -20 -20 -14 -20 -20 -20 -20 -20 -20 -20 -20 -20 -20 -20
17 10 11 23 16 7 3 -4 -20 -14 1 13 12 -2 10 35 21 -20 -20 -10 -20 -8 -20 -20 -20 -5 -20 -20 -20 -20 11 -20 -16 -20 -14 -20 -20 -20 -20 -20 -20 -20 -20 -20 -20 -20 -20 -20 -20 -20 -20 -20 -20 -20
31 23 24 19 14 4 2 -1 19 23 26 20 21 28 40 3 -20 -20 -20 -20 -20 -20 -20 -3 -3 -9 -7 -20 -15 15 21 24 1 -20 -20 -20 -20 -20 -20 -19 -20 -20 -20 -20 -20 -20 -20 -20 -20 -20 -20 -20 -20 -20
17 21 37 32 30 34 20 14 14 -7 -6 -5 12 -1 23 20 -12 -17 -20 -14 -19 20 -6 -20 -14 -3 2 -20 2 -20 -20 -18 -20 -20 -20 -17 -16 -14 -14 -20 -20 -20 -20 -20 -20 -20 -20 -20 -19 -20 -20 -20 -20 -20
24 19 9 9 25 23 12 14 26 2 -13 -20 -20 -20 -13 10 -0 -16 -6 -6 8 -4 -0 -6 1 1 2 -12 -6 -20 -11 -20 -20 -20 -20 -20 -19 -12 -14 -20 -17 -17 -20 -20 -20 -16 -5 -4 -20 -20 -20 -20 -20 -20
-20 -19 13 21 -6 -20 3 -3 -16 -20 -10 -14 -10 -6 10 -6 -18 -20 -14 -7 2 10 -20 -20 -20 -20 -20 -20 -20 -16 -20 -20 -20 -7 0 -18 -6 -3 -18 -17 -10 -13 8 14 0 -1 -10 -20 -20 -20 -20 -20 -20 -20
-20 -16 -13 -19 -16 -15 4 21 14 22 24 18 17 28 19 14 10 10 9 15 3 -9 -20 -20 -20 -1 9 2 9 3 -17 -17 11 -2 15 -7 4 3 -6 19 -5 -17 13 -7 -20 -20 -20 -20 -20 -20 -20 -20 -20 -20
-20 -20 -20 -20 -12 -19 -11 17 25 22 12 16 14 17 21 19 17 25 27 29 28 32 27 21 31 16 11 -3 -14 1 -5 1 22 25 24 25 24 11 -10 -7 3 -18 -20 -20 -20 -20 -20 -20 -20 -20 -20 -20 -20 -20
-20 -20 -20 -20 -20 -20 -20 -15 7 11 17 17 22 28 31 29 28 22 15 18 14 19 8 9 5 -0 3 2 14 16 15 7 -3 7 22 23 7 16 14 -4 -13 -17 -16 -20 -20 -20 -20 -20 -20 -20 -20 -20 -20 -20
-20 -20 -20 -20 -20 -20 -20 -5 -7 -7 -4 17 28 13 23 27 13 -12 -19 -2 3 -2 3 8 11 15 14 15 19 18 6 -1 -10 -19 -3 22 1 -6 16 11 -15 -20 -13 -20 -20 -20 -20 -20 -20 -20 -20 -20 -20 -20
-20 -20 -20 -20 -20 -20 -20 -20 -20 -20 -19 -18 -20 -20 -20 -20 -20 -20 -11 -11 -7 -5 4 1 8 3 3 1 -7 4 -4 -15 -17 -14 -19 -15 20 6 0 -6 5 7 -17 -16 6 7 -7 -19 -20 -20 -20 -20 -20 -20
-20 -20 -20 -20 -20 -20 -20 -20 -20 -20 -20 -7 -20 -20 -20 -20 -20 -20 -20 -20 0 9 10 -3 2 -20 -16 -7 -7 -20 -4 5 15 14 16 11 -3 -3 8 1 -4 6 -1 -9 0 3 7 -7 -20 -20 -20 -20 -20 -20
-20 -20 -20 -20 -20 -20 -20 -20 -20 -20 -20 -19 -20 -13 -10 -20 -10 -20 -18 7 11 -1 -12 0 -15 -20 -20 -20 -20 -20 -20 -20 -14 3 15 15 14 15 12 7 8 12 10 1 -3 -15 -20 -20 -20 -20 -20 -20 -20 -20
-20 -20 -20 -20 -20 -20 -20 -20 -20 -20 -20 -19 -4 -19 -16 -20 -20 -20 -1 5 1 -20 -20 -10 7 -20 -20 -20 -20 -20 -15 -20 -20 -14 4 8 8 8 3 -9 -15 -1 2 -2 -19 -20 -20 -20 -20 -20 -20 -20 -20 -20
-20 -20 -20 -20 -20 -20 -20 -20 -20 -19 -15 -18 -0 -20 -20 -20 -19 4 0 3 -20 -20 -20 -17 -20 -20 -15 -9 -20 -20 -20 -20 -20 -20 -20 -7 -20 -20 -19 -20 -16 -16 -20 -20 -20 -20 -20 -20 -20 -20 -20 -20 -20 -20
-20 -16 -20 -20 -20 -20 -14 -20 -20 -13 -13 -2 -16 -16 -18 8 -20 -20 -3 -5 -20 -20 -20 -20 -16 -20 -20 -20 -20 -20 -20 -20 -20 -20 -20 -20 -20 -20 -20 -20 -17 -20 -20 -20 -20 -20 -20 -20 -20 -20 -20 -20 -15 -20
-20 -20 -20 -20 -20 -7 0 2 -4 -20 -10 -20 -8 2 -20 -5 -20 -6 -10 -10 -5 -20 -20 -20 -20 -20 -11 -1 -20 -20 -20 -20 -20 -20 -20 -20 -20 -20 -20 -20 -20 -20 -20 -20 -20 -20 -20 -20 -20 -20 -20 -20 -20 -20
-20 -20 -20 -20 -20 -20 -20 -16 3 -17 -18 -20 -15 -20 -20 -20 -20 -5 -7 -17 -14 -20 -20 -20 -20 -20 -20 -20 -20 -20 -20 -20 -20 -20 -20 -20 -20 -20 -20 -20 -20 -20 -20 -20 -20 -20 -20 -20 -20 -20 -20 -20 -20 -20
-20 -20 -20 -20 -20 -20 -19 6 -4 -20 -20 -19 -20 -20 -20 -12 -18 1 4 -8 -17 -19 -20 -20 -0 -11 -19 -20 -20 -20 -20 -20 -20 -20 -20 -20 -20 -20 -20 -20 -20 -20 -20 -20 -20 -12 -16 -20 -20 -20 -20 -20 -20 -20
-20 -20 -20 -20 -20 -6 -19 -20 -9 -20 -8 -11 -20 -18 -2 -0 -15 -20 -20 -20 -20 -20 -20 -20 -20 -20 -20 -20 -20 -20 -20 -20 -20 -20 -20 -20 -20 -20 -20 -19 -20 -20 -20 -20 -20 -20 -20 -20 -20 -20 -20 -20 -20 -20
-20 -20 -20 -20 -19 -20 -20 -19 -13 -10 -6 -12 -20 -20 -20 -16 -20 -20 -20 -20 -20 -13 -12 -20 -20 -20 -20 -20 -20 -20 -20 -20 -20 -20 -20 -20 -20 -20 -20 -20 -20 -20 -20 -13 -20 -20 -20 -20 -20 -20 -20 -20 -20 -20
-20 -20 -20 -20 -19 -20 -20 -10 -11 9 -9 -15 -20 -20 -20 -20 -20 -20 -20 -19 -20 -20 -20 -20 -20 -20 -20 -20 -20 -20 -20 -20 -20 -20 -20 -20 -20 -20 -20 -20 -20 -20 -20 -20 -20 -20 -20 -20 -20 -20 -20 -20 -20 -20
-20 -20 -20 -20 -20 -2 -20 -20 5 -20 -20 -20 -12 -20 -20 -20 -20 -16 -20 -20 -20 -20 -20 -20 -20 -20 -19 -20 -20 -20 -20 -20 -20 -20 -20 -20 -20 -20 -20 -20 -20 -20 -20 -20 -20 -20 -20 -20 -20 -20 -20 -20 -20 -20

GFSWCAN_prec_radar_036.txt.gz
Reflectivity
14 10 -8 10 14 -12 -9 -10 -7 6 10 11 -6 12 -20 -10 3 10 -2 27 29 23 -20 3 -14 -20 -20 -20 -20 -20 12 -20 23 20 -20 -20 -20 -20 -20 -20 -20 -20 -20 -20 -20 -20 -20 -20 -20 -20 -20 -20 -20 -20
-20 -20 -17 -17 5 12 -20 -20 6 12 6 -0 -16 -6 -20 9 13 20 7 25 28 5 -3 -15 -16 -20 -20 -20 -20 -20 -20 -20 -16 17 -20 -20 -20 -20 -20 -20 -20 -20 -20 -20 -20 -20 -20 -20 -20 -20 -20 -20 -20 -20
11 6 -12 9 -16 -20 0 12 27 19 -8 38 21 -3 13 21 31 15 4 3 19 27 36 21 -20 -20 -20 -20 -20 -14 -20 -16 16 -20 20 5 -20 -20 -20 -20 -20 -20 -20 -20 -20 -20 -20 -20 -20 -20 -20 -20 -20 -20
-20 11 -1 -2 13 -20 -0 -1 16 28 32 21 22 38 31 24 31 12 -0 8 19 23 23 23 8 -1 -20 -20 -20 -20 -13 -20 -20 22 17 -4 -20 -20 -20 -20 -20 -20 -20 -20 -20 -20 -20 -20 -20 -20 -20 -20 -20 -20
-20 -20 -12 -19 4 -12 -7 -20 -20 -20 19 27 -1 -17 -7 5 -19 -20 -13 10 7 13 14 31 -11 13 10 -20 -20 19 -20 -20 -20 -14 6 6 -20 -20 -20 -20 -20 -20 -20 -20 -20 -20 -20 -20 -20 -20 -20 -20 -20 -20
-20 -20 -20 -20 -20 -20 -20 -20 -20 -20 7 -20 -20 -8 -20 -20 -20 12 13 36 27 16 -4 -10 -20 16 17 -19 -8 18 18 8 12 -20 13 16 -7 -20 -20 -20 -20 -20 -20 -20 -20 -20 -20 -20 -20 -20 -20 -20 -20 -20
-15 -18 -20 -20 -20 -20 -20 -20 -11 -19 -20 3 5 8 -20 -19 -20 -5 4 -17 -9 2 25 32 -13 11 23 9 33 44 25 25 27 17 9 14 -4 -20 -20 -20 -20 -20 -20 -20 -20 -20 -20 -20 -20 -20 -20 -20 -20 -20
6 -20 -20 -20 -20 -20 -20 -20 -20 -20 -20 -20 -20 -20 -9 -1 9 20 28 25 25 18 30 30 32 46 28 27 26 21 22 20 41 29 14 -4 -20 -20 -20 -20 -20 -20 -20 -20 -20 -20 -20 -20 -20 -20 -20 -20 -20 -20
12 5 -8 -20 -20 -20 -20 -20 -20 -20 -20 2 -20 -9 10 31 21 14 29 37 32 27 35 33 40 34 11 4 -18 -12 22 -4 17 15 -5 -20 -20 -20 -20 -20 -20 -20 -20 -20 -20 -20 -20 -20 -20 -20 -20 -20 -20 -20
24 24 19 -2 -15 -19 -20 -20 -20 -20 16 26 19 31 29 21 21 28 36 43 40 32 23 20 17 23 9 -19 -20 -20 -15 -20 -20 -20 -20 -20 -20 -20 -20 -20 -20 -20 -20 -20 -18 -20 -20 -20 -20 -20 -20 -20 -20 -20
13 12 16 -6 -14 -12 11 8 5 24 32 35 31 26 25 39 42 42 43 31 6 13 3 -1 1 1 -9 -20 -20 -20 -20 -20 -20 -20 -20 -20 -20 -20 -20 -20 7 -3 12 14 -20 2 -20 -20 -20 -20 -20 -20 -20 -20
16 6 5 2 11 -4 11 18 25 29 30 24 25 32 38 36 37 28 7 -12 -19 -20 -20 -20 -20 -20 -20 -20 -20 -20 -20 -20 -20 -20 -20 -20 -20 -20 1 9 14 18 -6 -20 -20 -13 -20 -20 -20 -20 -20 -20 -20 -20
12 13 17 14 -7 21 13 12 32 30 35 33 38 37 23 7 8 15 2 -19 -20 -1 -5 -16 -18 18 -9 11 4 -20 -20 -20 -20 -2 -20 -20 -8 -2 7 -6 -16 -20 -1 -20 -8 -7 -19 -20 -20 -20 -20 -20 -20 -20
18 -3 6 20 23 28 32 38 32 32 18 14 21 13 -3 6 1 -2 -3 -19 -3 12 6 -20 -19 -18 5 26 -6 -17 -3 -18 -20 -20 -20 -18 -7 3 -3 -17 -8 -10 -20 -20 -20 -2 -18 -20 -20 -19 -6 -16 -20 -20
18 25 27 27 -1 -20 -20 -6 -10 -20 -20 -11 7 8 3 15 16 22 22 18 14 15 -20 -20 -20 -19 -10 -8 -19 -20 -7 -9 -20 -20 -19 -8 -5 -10 -10 -20 -20 -20 -18 -20 -18 -16 -20 -15 -5 -2 -6 -20 -20 -20
26 12 5 17 23 12 7 -6 -20 -5 9 8 -8 1 4 -0 2 9 11 10 2 -20 -20 -20 2 5 -5 -20 -20 -20 -20 -20 -19 -20 -14 -20 -15 -18 -17 -15 -15 -16 -18 -20 -20 -15 -3 -3 -10 -20 -20 -20 -20 -20
-18 -15 3 20 3 8 -1 1 6 -5 -20 -20 1 16 10 -16 -4 -1 -8 -1 -3 5 -9 -20 -15 -8 10 -9 -16 -13 -14 -15 -17 -2 17 -11 -13 -7 -2 -4 -18 14 14 6 7 -5 -16 -3 -19 -20 -20 -20 -20 -20
-20 -20 -20 -13 -7 -1 -17 -18 -20 -20 -20 1 5 10 15 8 9 20 22 10 7 11 12 8 15 -2 -7 -18 -9 12 15 18 18 25 26 5 20 23 20 13 23 20 6 -12 -20 -20 -20 -20 -20 -20 -20 -20 -20 -20
-20 -20 -20 -20 -20 -19 3 10 13 0 12 10 14 13 12 18 20 11 12 16 21 16 2 9 7 8 11 15 17 17 16 17 18 14 23 23 15 18 22 -0 -15 -5 -2 -17 -19 -20 -20 -20 -20 -20 -20 -20 -20 -20
-20 -20 -20 -20 -20 -20 -20 2 -3 1 -0 14 12 -3 2 8 4 -6 -5 2 -4 -14 -5 6 10 13 14 16 16 17 16 16 16 -16 -7 2 22 19 5 -14 -8 0 -9 -5 -16 -19 -20 -20 -20 -19 -20 -20 -20 -20
-20 -20 -20 -20 -20 -20 -20 -20 -20 -20 -5 0 -6 -4 -4 -20 -20 -20 -20 -20 -20 -9 10 13 11 12 10 9 9 10 7 9 -4 -10 8 6 10 1 3 8 5 9 2 -1 1 10 8 4 -5 -13 -9 -19 -20 -20
-20 -20 -20 -20 -20 -20 -20 -20 -20 -20 -20 -20 -20 -20 -20 -20 -20 -20 -20 -20 0 4 11 -1 -7 -8 -12 -15 -6 -15 -11 -20 -14 6 -7 -14 -13 1 8 12 12 15 13 8 1 2 2 -12 -18 -19 -19 -20 -20 -20
-20 -20 -20 -20 -20 -20 -20 -20 -20 -20 -20 -20 -20 -20 -20 -20 -20 -20 -19 4 5 4 8 -18 -20 -20 -20 -20 -20 -20 -20 -19 -18 0 11 12 14 16 14 10 5 0 1 2 -0 2 5 -0 -6 -16 -20 -20 -20 -20
-20 -20 -20 -20 -20 -20 -20 -20 -20 -20 -20 -20 -20 -20 -20 -2 -17 -20 -17 -19 -2 -18 -20 -17 -17 -20 -20 -20 -20 -20 -20 -20 -20 -19 -10 -8 -11 -3 -6 -3 -4 -5 -5 -12 -17 -20 -20 -20 -20 -20 -20 -20 -20 -20
-20 -20 -20 -20 -20 -20 -20 -20 -20 -20 -20 -20 -20 -20 -20 -20 -20 -20 -9 -20 -20 -20 -20 -20 -20 -20 -20 -20 -20 -20 -20 -20 -20 -20 -20 -20 -20 -20 -19 -20 -20 -20 -20 -20 -20 -20 -20 -20 -20 -20 -20 -20 -20 -20
-20 -14 -20 -20 -20 -20 -14 -20 -20 -19 -20 -20 -20 -20 -20 -20 -20 -20 -9 -20 -20 -20 -20 -20 -20 -20 -20 -20 -20 -20 -20 -20 -20 -20 -20 -20 -20 -20 -20 -20 -20 -20 -20 -20 -20 -20 -20 -20 -20 -20 -20 -20 -20 -20
-20 -20 -20 -20 -20 -20 -20 -20 -20 -20 -20 -20 -20 -20 -20 -20 -20 -7 -6 -20 -20 -20 -20 -20 -20 -20 -20 -20 -14 -20 -20 -20 -20 -20 -20 -20 -20 -20 -20 -20 -20 -20 -20 -20 -20 -20 -20 -20 -20 -20 -20 -20 -20 -20
-19 -20 -20 -20 -20 -20 -20 -20 -20 -20 -20 -20 -20 -20 -20 -20 -20 -20 -20 -19 -20 -20 -20 -20 -20 -20 -20 -20 -20 -20 -20 -20 -20 -20 -20 -20 -20 -20 -20 -20 -20 -20 -20 -20 -20 -20 -20 -20 -20 -20 -20 -20 -20 -20
-20 -20 -20 -20 -20 -20 -20 -20 -20 -20 -20 -20 -20 -20 -20 -18 -20 -12 -20 -19 -19 -20 -20 -20 -20 -20 -20 -20 -20 -20 -20 -20 -20 -20 -20 -20 -20 -20 -20 -20 -20 -20 -20 -20 -20 -20 -16 -20 -20 -20 -20 -20 -20 -20
-20 -20 -20 -20 -20 -20 -12 -20 -20 -20 -20 -20 -20 -18 -20 -15 -20 -20 -20 -20 -20 -20 -20 -20 -20 -20 -20 -20 -20 -20 -20 -20 -20 -20 -20 -20 -20 -20 -20 -20 -20 -20 -20 -20 -20 -20 -20 -20 -20 -20 -20 -20 -20 -20
-20 -20 -20 -20 -20 -20 -20 -20 -20 -20 -20 -20 -20 -20 -20 -20 -20 -20 -20 -20 -20 -20 -20 -20 -20 -20 -20 -20 -20 -20 -20 -20 -20 -20 -20 -20 -20 -20 -20 -20 -20 -20 -20 -20 -20 -20 -20 -20 -20 -20 -20 -20 -20 -20
-20 -20 -20 -20 -20 -20 -20 -6 -15 -16 -20 -20 -20 -20 -20 -20 -20 -20 -20 -20 -20 -20 -20 -20 -20 -20 -20 -20 -20 -20 -20 -20 -20 -20 -20 -20 -20 -20 -20 -20 -20 -20 -20 -20 -20 -20 -20 -20 -20 -20 -20 -20 -20 -20
-20 -20 -20 -20 -19 -19 -20 -20 -13 -20 -20 -20 -20 -20 -20 -20 -20 -20 -20 -20 -20 -20 -20 -20 -20 -20 -20 -20 -20 -20 -20 -20 -20 -20 -20 -20 -20 -20 -20 -20 -20 -20 -20 -20 -20 -20 -20 -20 -20 -20 -20 -20 -20 -20

GFSWCAN_prec_radar_039.txt.gz
Reflectivity
30 31 32 36 31 22 20 10 6 -7 11 -16 -20 -20 -20 -10 -11 35 30 15 18 27 13 -19 -9 -6 -20 -20 -20 -20 -20 -18 -20 -20 14 -9 -20 -20 -20 -20 -20 -20 -20 -20 -20 -20 -20 -20 -20 -20 -20 -20 -20 -20
18 17 12 9 3 -3 -19 3 8 9 -17 -8 4 -3 20 18 -2 25 22 33 33 15 -19 -18 -20 -20 -20 -20 -20 -20 -20 -20 -20 -20 -20 23 -20 -20 -20 -20 -20 -20 -20 -20 -20 -20 -20 -20 -20 -20 -20 -20 -20 -20
-3 -7 -7 -13 -5 -20 -14 -4 -15 -18 -13 -2 -20 12 5 -4 13 21 17 19 12 -7 -14 -19 -20 -20 -20 -20 -20 -20 -20 -20 -20 -20 0 -18 -20 -20 -20 -20 -20 -20 -20 -20 -20 -20 -20 -20 -20 -20 -20 -20 -20 -20
3 6 5 -9 -13 -8 8 12 6 -6 -14 -20 -12 -13 -18 9 4 30 25 23 11 10 36 1 -20 -20 5 -20 -20 -20 -20 -20 16 13 24 23 -9 -20 -20 -20 -20 -20 -20 -20 -20 -20 -20 -20 -20 -20 -20 -20 -20 -20
4 -15 5 11 25 26 28 25 20 8 10 -20 2 -13 3 -10 7 8 28 30 9 14 23 -0 -1 -20 26 15 -20 -20 -20 -20 15 18 -8 -20 -20 1 -20 -12 -20 -20 -20 -20 -20 -20 -20 -20 -20 -20 -20 -20 -20 -20
0 10 10 14 4 -19 -19 16 26 22 28 29 26 -12 8 18 23 26 30 18 15 29 30 32 32 15 8 4 19 -20 -20 -20 19 17 4 -19 -20 17 2 7 -20 -20 -20 -20 -20 -20 -20 -20 -20 -20 -20 -20 -20 -20
-20 -20 4 -20 -20 -20 -20 -2 17 31 35 29 35 33 29 27 9 14 7 -5 -3 2 27 29 8 3 7 25 26 16 -12 -10 -8 12 1 -2 -20 -20 -17 -8 -11 -20 -20 -20 -20 -20 -20 -20 -20 -20 -20 -20 -20 -20
-20 -20 -20 -20 -20 -20 -20 -20 -20 19 18 22 27 16 34 31 24 -10 4 -19 -20 17 38 34 7 -14 -20 3 23 24 15 -6 -15 12 20 10 7 -20 -20 10 0 -10 -20 -20 -20 -20 -20 -20 -20 -20 -20 -20 -20 -20
-20 -20 -20 -20 -20 -20 -20 -20 -20 -20 19 16 16 24 20 -6 -20 -20 21 21 -20 7 29 26 -13 -17 -12 -15 16 20 21 -4 18 25 8 2 -20 -20 -20 -20 -3 11 -15 -20 -20 -20 -20 -20 -20 -20 -20 -20 -20 -20
-16 -20 -20 -20 -20 -20 -20 -20 -20 -20 -20 -19 1 7 -18 -19 -6 32 25 10 30 24 -3 2 -1 -20 -20 25 42 34 -17 10 22 43 14 -20 40 34 8 -6 -7 -20 -20 -20 -19 8 -19 -19 4 15 -20 -20 -20 -20
-0 -16 -20 -20 -20 -20 -20 -20 -20 -20 -10 -6 -20 17 29 28 -11 -6 34 32 23 23 8 -17 -9 6 -3 47 39 32 38 42 38 33 19 -14 -9 16 14 6 -3 -19 -20 -5 5 -5 12 13 -20 -20 -20 -20 -20 -20
-20 -20 -20 -20 -20 -20 -20 -20 -20 -7 11 24 36 35 29 -14 4 20 18 34 30 6 11 14 -5 -8 30 38 35 20 -2 -16 -16 -20 -20 -20 -20 5 3 -6 -15 -20 -20 -20 7 2 12 -19 -20 -20 -20 -20 -20 -20
-17 -8 -20 -20 -20 -4 16 -7 18 29 40 33 11 12 15 25 27 28 18 7 -3 13 -2 4 16 19 20 28 19 10 -4 -20 -20 0 -20 -18 -20 -20 -20 -20 -20 -20 -19 -15 17 4 13 5 -20 -20 -20 -20 -20 -20
-6 -9 -2 8 18 15 20 29 29 37 26 35 37 30 27 24 10 11 11 6 -5 -13 -20 5 -6 7 -20 -13 -17 -20 -20 -20 -20 -2 -20 -20 -20 -20 3 -20 -20 -3 7 4 8 3 -10 -19 -20 -20 -20 -20 -20 -20
15 15 18 23 28 36 38 37 42 44 38 28 29 12 5 9 14 6 15 6 -1 7 -10 -9 -6 -16 -6 -13 -14 -0 -20 -20 -19 -19 -20 -8 -12 -18 -20 -19 -7 0 8 -1 -18 -20 -20 -17 -20 -20 -20 -20 -20 -19
24 19 30 34 34 33 36 31 34 29 4 -13 -3 10 -7 -11 8 12 12 10 12 6 -14 -19 -18 -19 -8 -18 -3 2 -19 -19 -16 -20 -20 -17 -12 -15 -15 -11 -13 -18 -14 -4 2 -10 -19 -20 -7 1 1 -9 -18 -20
20 1 20 20 27 25 24 6 -18 -20 -20 -20 11 21 -5 -12 5 14 8 9 2 -20 -20 -20 -20 -11 -11 -19 -20 -6 -5 1 -6 -15 -14 -12 -12 -11 -1 14 20 12 -13 -20 -20 -18 -3 -9 -19 -20 -20 -20 -20 -20
29 3 15 12 19 27 27 30 20 5 -2 10 5 6 -14 -5 -2 6 10 7 8 16 15 2 4 3 -2 -20 -18 -5 -1 13 8 10 13 26 27 27 25 22 19 7 0 -9 -13 -18 -6 -9 -20 -20 -20 -20 -20 -20
-20 -9 -0 -20 -20 -5 -7 -12 -15 -11 3 -2 0 13 3 11 12 6 -4 7 14 12 12 17 13 8 9 7 12 13 16 15 18 18 10 23 24 22 23 25 22 12 12 8 2 -3 -14 -20 -20 -20 -20 -20 -20 -20
-20 -20 -20 -20 -20 -15 -13 -5 -5 -12 6 19 19 9 7 6 7 6 -2 -6 8 13 15 12 11 14 14 15 17 17 18 17 12 -20 -16 4 14 14 16 13 9 11 7 5 4 -4 -9 -19 -19 -19 -17 -17 -19 -20
-20 -20 -20 -20 -20 -20 -20 -20 -19 19 -7 3 -16 -20 -5 -20 -20 -20 -19 -17 -20 -20 3 8 8 9 10 10 10 11 7 9 12 7 9 10 11 4 -5 -9 -3 4 2 8 7 9 9 7 6 1 -5 -10 -6 -18
-20 -20 -20 -20 -20 -20 -20 -20 -20 -20 -20 -20 -20 -20 -20 -20 -20 -20 -20 -20 -3 6 2 -3 0 -5 -9 -14 -2 -7 4 -2 5 9 8 0 -8 1 6 13 13 13 12 12 11 9 7 6 5 3 -2 -7 -16 -20
-20 -20 -20 -20 -20 -20 -20 -20 -20 -20 -20 -20 -20 -20 -20 -20 -20 -20 -20 -3 3 7 8 -16 -20 -20 -20 -20 -20 -20 -20 -20 -20 -19 -14 -5 2 8 9 10 12 11 11 10 5 -9 -15 -15 -19 -18 -20 -20 -20 -20
-20 -20 -20 -20 -20 -20 -20 -20 -20 -20 -20 -20 -20 -20 -20 -20 -20 -20 -18 -19 -3 -9 -20 -20 -20 -20 -20 -20 -20 -20 -20 -20 -20 -20 -18 -20 -20 -17 -19 -18 -20 -19 -19 -18 -19 -19 -19 -20 -20 -20 -20 -20 -20 -20
-20 -20 -20 -20 -20 -20 -20 -20 -20 -20 -20 -20 -20 -20 -20 -20 -20 -20 -20 -20 -20 -20 -20 -20 -20 -20 -20 -20 -20 -20 -20 -20 -20 -20 -20 -20 -20 -20 -20 -20 -20 -20 -20 -20 -20 -20 -20 -20 -20 -20 -20 -20 -20 -20
-20 -20 -20 -20 -20 -20 -20 -20 -20 -20 -20 -20 -20 -19 -20 -20 -20 -20 -11 -20 -20 -20 -20 -20 -20 -20 -20 -20 -20 -20 -20 -20 -20 -20 -20 -20 -20 -20 -20 -20 -20 -20 -20 -20 -20 -20 -20 -20 -20 -20 -20 -20 -20 -20
-20 -20 -20 -20 -20 -20 -20 -20 -20 -20 -20 -20 -20 -20 -20 -20 -20 -8 1 -20 -20 -20 -20 -20 -20 -20 -20 -20 -20 -20 -20 -20 -20 -20 -20 -20 -20 -20 -20 -20 -20 -20 -20 -20 -20 -20 -20 -20 -20 -20 -20 -20 -20 -20
-20 -20 -20 -20 -20 -20 -20 -20 -20 -20 -20 -20 -20 -20 -20 -20 -20 -20 -20 -11 -20 -20 -20 -20 -20 -20 -20 -20 -20 -20 -20 -20 -20 -20 -20 -20 -20 -20 -20 -20 -20 -20 -20 -20 -20 -20 -20 -20 -20 -20 -20 -20 -20 -20
-20 -20 -20 -20 -20 -20 -20 -20 -20 -20 -20 -20 -20 -20 -20 -20 -20 -20 -20 -20 -20 -20 -20 -20 -20 -20 -20 -20 -20 -20 -20 -20 -20 -20 -20 -20 -20 -20 -20 -20 -20 -20 -20 -20 -20 -20 -20 -19 -20 -20 -20 -20 -20 -20
-20 -20 -20 -20 -20 -20 -20 -20 -20 -20 -20 -20 -20 -18 -20 -20 -20 -20 -20 -20 -20 -20 -20 -20 -20 -20 -20 -20 -20 -20 -20 -20 -20 -20 -20 -20 -20 -20 -20 -20 -20 -20 -20 -20 -20 -20 -20 -20 -20 -20 -20 -20 -20 -20
-20 -20 -20 -20 -20 -19 -20 -20 -20 -20 -20 -20 -20 -20 -20 -20 -20 -20 -20 -20 -20 -20 -20 -20 -20 -20 -20 -20 -20 -20 -20 -20 -20 -20 -20 -20 -20 -20 -20 -20 -20 -20 -20 -20 -20 -20 -20 -20 -20 -20 -20 -20 -20 -20
-20 -20 -20 -20 -20 -2 -16 -20 -20 -20 -20 -20 -20 -20 -20 -20 -20 -20 -20 -20 -20 -20 -20 -20 -20 -20 -20 -20 -20 -20 -20 -20 -20 -20 -20 -20 -20 -20 -20 -20 -20 -20 -20 -20 -20 -20 -20 -20 -20 -20 -20 -20 -20 -20
-20 -20 -20 -20 -20 -20 -20 -20 -19 -20 -20 -20 -20 -20 -20 -20 -20 -20 -20 -20 -20 -20 -20 -20 -20 -20 -20 -20 -20 -20 -20 -20 -20 -20 -20 -20 -20 -20 -20 -20 -20 -20 -20 -20 -20 -20 -20 -20 -20 -20 -20 -20 -20 -20

GFSWCAN_prec_radar_042.txt.gz
Reflectivity
5 19 24 21 10 10 17 23 32 35 24 21 23 19 -1 -20 7 -20 -8 34 13 23 16 16 3 -20 -20 -20 -20 -20 3 -18 -20 -20 -20 -6 -15 -20 1 -20 -20 -20 -20 -20 -20 -20 -20 -20 -20 -20 -20 -20 -20 -20
28 23 22 23 24 28 33 33 30 24 23 21 31 20 12 4 20 -20 5 32 21 22 16 9 18 -20 -20 -20 -20 -20 -20 -20 -20 -20 -20 -20 -20 -20 -20 -20 -20 -20 -20 -20 -20 -20 -20 -20 -20 -20 -20 -20 -20 -20
7 17 25 26 27 23 21 22 25 27 29 28 21 18 -20 -20 1 -20 5 12 27 30 16 16 -13 16 -20 -20 -20 -20 -20 -20 -20 -20 -20 -20 -20 -20 -20 -20 -20 -20 -20 -20 -20 -20 -20 -20 -20 -20 -20 -20 -20 -20
7 0 -0 2 5 9 14 14 17 17 16 -6 -0 17 -20 -20 -20 0 -2 18 25 22 -4 -19 -12 -3 -20 -20 -20 -20 -20 -20 1 -20 -20 -20 2 -17 -20 -20 -1 -20 -20 -20 -20 -20 -20 -20 -20 -20 -20 -20 -20 -20
-1 -17 10 3 -7 -20 -20 -20 -20 -20 -20 -12 12 10 11 -20 -15 -16 -9 17 31 32 8 -20 -20 -20 -20 -20 -20 -20 -20 -20 -20 22 10 -20 -20 -20 3 14 -16 -20 -20 -20 -20 -20 -20 -20 -20 -20 -20 -20 -20 -20
-20 6 11 10 6 1 5 -20 -20 -20 -20 -20 12 18 22 21 24 21 25 30 31 34 23 20 -16 -20 -20 2 3 -20 2 -20 -20 -20 -20 -19 -20 15 15 -20 -20 5 5 -6 -20 -20 -20 -20 -20 -20 -20 -20 -20 -20
-20 -16 5 7 9 17 13 18 1 -20 -20 7 5 13 14 11 -14 13 11 18 15 38 30 12 -9 -20 -20 -12 -18 -9 19 -20 17 -11 -20 -20 17 -17 20 -19 -20 -20 4 12 12 -20 -20 -20 -20 -20 -20 -20 -20 -20
-16 -6 -20 -20 -6 24 11 -5 8 12 14 19 18 1 -1 18 -20 14 -19 1 21 29 25 23 24 -4 -10 21 20 0 14 -20 -18 -20 -20 2 12 -20 -6 -8 -20 -2 -14 -6 -18 7 -16 -20 -20 -20 -20 -20 -20 -20
-20 -20 -20 -20 -17 8 9 5 12 25 16 19 17 -7 32 24 11 -17 -6 28 20 5 -8 -20 -11 -17 -7 46 36 22 19 8 -20 -20 -20 7 -19 -20 -20 -20 -20 -20 -20 -20 2 12 14 -14 -20 -20 -20 -20 -20 -20
-20 -20 -20 -20 -20 -20 -20 16 11 24 32 38 40 35 7 -20 16 22 36 30 28 19 8 25 25 5 -20 -1 -3 20 30 1 -20 -20 -19 -20 -20 -20 -20 -20 -20 17 9 -20 -19 -15 9 -8 -20 -20 -20 -20 -19 19
-20 -20 -20 -20 -20 -20 -20 -20 5 14 -6 -8 -12 -18 -20 -20 -12 26 41 38 41 35 3 5 14 8 -9 -20 -18 -14 -14 35 25 -19 -20 -20 -20 -17 2 3 17 19 33 22 9 -18 -12 3 -20 -20 -20 -14 23 28
-20 -20 -20 -20 -20 -20 -20 -20 -12 -9 -20 -1 16 -9 -12 8 17 -13 -10 -20 -18 -4 9 20 8 -2 14 -8 1 35 28 13 28 29 26 2 -19 2 40 40 36 22 21 -5 -20 -20 -18 -20 -20 -18 -10 19 28 24
-20 -20 -20 -20 -20 -20 -20 -14 -11 25 37 33 34 27 -6 -12 -18 -19 -20 -11 25 20 15 17 10 -1 2 6 26 32 26 18 29 31 19 18 34 29 25 23 14 -9 -14 3 -1 -9 -19 -11 -4 18 26 18 14 3
-20 -5 -18 -20 6 12 18 24 32 27 25 24 28 -20 -8 7 11 17 10 11 23 28 17 -0 -7 2 -5 23 11 15 22 34 23 16 9 5 13 10 0 -12 -3 -20 -15 -10 7 18 19 25 22 4 3 -10 -19 -18
-4 9 15 24 28 30 18 18 33 37 30 13 11 -8 -10 16 18 23 20 20 18 16 23 21 14 9 29 3 -11 15 2 4 1 -1 4 14 21 17 18 22 20 16 15 19 13 2 -3 1 -1 -12 -5 1 -13 -20
25 27 27 26 23 24 23 30 33 38 33 22 23 23 24 23 17 10 9 13 22 17 5 -18 -13 -9 11 -7 -9 2 -3 -8 -9 2 7 16 10 12 15 11 4 -0 -0 2 3 -1 -3 -8 -5 5 -4 -20 -20 -17
-19 9 22 24 33 36 36 36 32 13 -18 -1 19 19 12 -6 -5 -1 9 12 14 12 -1 -20 -20 -12 -3 -0 -20 -11 -8 6 13 12 15 20 9 11 12 14 13 7 -10 -18 -3 3 6 0 -19 -16 -20 -20 -20 -20
18 15 25 26 26 31 30 23 -15 -20 -1 11 1 10 -6 -5 -8 -20 -12 -7 5 -20 -19 -17 -19 -12 -20 -19 -18 -7 1 11 20 19 19 19 25 22 21 1 5 4 5 10 9 8 7 9 5 -4 -17 -20 -20 -20
30 31 29 30 24 24 -8 -5 -17 -12 7 6 6 -6 -8 -12 -13 -8 -13 -20 -20 -20 -20 -11 -10 -13 1 4 9 13 14 16 16 13 3 8 14 18 14 15 12 11 12 10 9 7 6 2 -2 -16 -20 -20 -20 -20
10 17 27 35 37 30 14 -3 -20 -20 -10 -16 -20 -20 -20 -20 -20 -20 -20 -20 -20 -20 -20 -15 7 13 13 14 15 15 14 16 16 7 7 11 14 12 14 14 13 12 9 9 10 11 8 5 3 -4 -8 -17 -13 -15
-20 -20 -4 3 7 -2 -5 -20 -20 -13 -20 -12 -10 -20 -20 -20 -20 -20 -20 -20 -20 -20 -0 6 1 4 7 8 7 8 3 -1 -2 -5 5 5 11 11 12 15 15 15 14 14 11 9 3 -2 -0 -5 -14 -16 -17 -18
-20 -20 -20 -20 -20 -20 -20 -20 -20 -20 -20 -20 -20 -20 -20 -20 -20 -20 -20 -20 -6 5 1 -11 -4 -1 -7 -7 2 2 8 4 5 3 4 6 4 6 7 10 4 1 0 4 2 -5 -10 -13 -18 -20 -20 -19 -20 -20
-20 -20 -20 -20 -20 -20 -20 -20 -20 -20 -20 -20 -20 -20 -20 -20 -20 -20 -20 -9 0 4 -9 -5 -19 -20 -20 -20 -20 -20 -20 -20 -20 -20 -20 -20 -19 -17 -18 -18 -17 -19 -19 -8 -6 -12 -18 -18 -20 -20 -20 -20 -20 -20
-20 -20 -20 -20 -20 -20 -20 -20 -20 -20 -20 -20 -20 -20 -20 -20 -20 -20 -20 -20 -6 -20 -20 -20 -20 -20 -20 -20 -20 -20 -20 -20 -20 -20 -20 -20 -20 -20 -20 -20 -20 -20 -20 -20 -20 -20 -20 -20 -20 -20 -20 -20 -20 -20
-20 -20 -20 -20 -20 -20 -20 -20 -20 -20 -20 -20 -20 -20 -20 -20 -20 -20 -20 -20 -20 -20 -20 -20 -20 -20 -20 -20 -20 -20 -20 -20 -20 -20 -20 -20 -20 -20 -20 -20 -20 -20 -20 -20 -20 -20 -20 -20 -20 -20 -20 -20 -20 -20
-20 -20 -20 -20 -20 -20 -20 -20 -20 -20 -20 -20 -20 -19 -20 -20 -20 -20 -19 -20 -20 -20 -20 -20 -20 -20 -20 -20 -20 -20 -20 -20 -20 -20 -20 -20 -20 -20 -20 -20 -20 -20 -20 -20 -20 -20 -20 -20 -20 -20 -20 -20 -20 -20
-20 -20 -20 -20 -20 -20 -20 -20 -20 -20 -20 -20 -20 -20 -20 -20 -20 -20 -14 -20 -20 -20 -20 -20 -20 -20 -20 -20 -20 -20 -20 -20 -20 -20 -20 -20 -20 -20 -20 -20 -20 -20 -20 -20 -20 -20 -20 -20 -20 -20 -20 -20 -20 -20
-20 -20 -20 -20 -20 -20 -20 -20 -20 -20 -20 -20 -20 -20 -20 -20 -20 -20 -20 -8 -20 -20 -20 -20 -20 -20 -20 -20 -20 -20 -20 -20 -20 -20 -20 -20 -20 -20 -20 -20 -20 -20 -20 -20 -20 -20 -20 -20 -20 -20 -20 -20 -20 -20
-20 -20 -20 -20 -20 -20 -20 -20 -20 -20 -20 -20 -20 -20 -20 -20 -20 -20 -20 -20 -20 -20 -20 -20 -20 -20 -20 -20 -20 -20 -20 -20 -20 -20 -20 -20 -20 -20 -20 -20 -20 -20 -20 -20 -20 -20 -12 -20 -19 -20 -20 -20 -20 -20
-20 -20 -20 -20 -20 -20 -20 -20 -20 -20 -20 -20 -20 -18 -20 -20 -20 -20 -20 -20 -20 -20 -20 -20 -20 -20 -20 -20 -20 -20 -20 -20 -20 -20 -20 -20 -20 -20 -20 -20 -20 -20 -20 -20 -20 -20 -20 -20 -20 -20 -20 -20 -20 -20
-20 -20 -20 -20 -20 -20 -20 -20 -20 -20 -20 -20 -20 -20 -20 -20 -20 -20 -20 -20 -20 -20 -20 -20 -20 -20 -20 -20 -20 -20 -20 -20 -20 -20 -20 -20 -20 -20 -20 -20 -20 -20 -20 -20 -20 -20 -20 -20 -20 -20 -20 -20 -20 -20
-20 -20 -20 -20 -20 -20 -20 -20 -20 -20 -20 -20 -20 -20 -20 -20 -20 -20 -20 -20 -20 -20 -20 -20 -20 -20 -20 -20 -20 -20 -20 -20 -20 -20 -20 -20 -20 -20 -20 -20 -20 -20 -20 -20 -20 -20 -20 -20 -20 -20 -20 -20 -20 -20
-20 -20 -20 -20 -20 -20 -20 -20 -20 -20 -20 -20 -20 -20 -20 -20 -20 -20 -20 -20 -20 -20 -20 -20 -20 -20 -20 -20 -20 -20 -20 -20 -20 -20 -20 -20 -20 -20 -20 -20 -20 -20 -20 -20 -20 -20 -20 -20 -20 -20 -20 -20 -20 -20

GFSWCAN_prec_radar_045.txt.gz
Reflectivity
24 2 8 -6 15 12 13 17 9 -2 25 36 27 32 25 13 5 -1 13 -20 -20 13 19 -3 21 13 -4 -20 -20 -20 -7 6 6 -14 -20 -20 -20 -19 -18 -17 -20 -20 -10 -20 -20 -20 -20 -20 -20 -20 -20 -20 -20 -20
20 15 6 -20 -20 -0 11 14 14 29 26 34 31 28 11 11 19 -17 -4 5 -3 0 37 35 -3 14 -20 -20 -20 -20 -20 -11 11 -7 -20 -20 -20 -20 -20 -20 -20 -20 -20 -20 -20 -20 -20 -20 -20 -20 -20 -20 -20 -20
20 27 16 -14 5 -15 3 15 30 25 32 32 24 24 19 14 22 27 9 -14 19 33 13 20 33 -20 -18 -20 -20 -20 -20 -20 -7 -16 -20 -20 -20 -20 -20 -20 -20 -20 -20 -2 -17 -20 -20 -20 -20 -20 -20 -20 -20 -20
9 14 28 31 27 23 22 25 28 32 31 24 27 25 31 32 26 3 -1 -11 -9 24 -1 8 29 17 21 -16 -20 -20 -20 -20 -20 -20 -20 -20 -20 -20 -20 -17 8 -20 -7 17 -20 -20 -20 -20 -20 -20 -20 -20 -20 -20
-20 -12 -4 -13 3 15 21 25 19 25 32 31 30 24 24 18 13 7 9 -20 -20 14 20 11 11 17 13 2 10 -20 -20 -20 -20 -20 -20 -20 -20 -20 -20 -20 -20 -20 -20 -20 -20 -7 -20 -20 -20 -20 -20 -20 -20 -20
-20 -20 -20 -19 8 9 14 18 23 24 29 29 20 23 23 9 -20 -20 -20 4 17 -1 32 -7 -4 20 22 -20 -13 -9 -20 -20 -20 -20 -20 -20 -20 -20 -20 -20 -20 -20 -20 -19 -20 13 8 -18 -20 -20 -20 -20 -20 -20
4 -20 -20 -15 -20 -3 -2 5 11 17 -10 -1 -10 -20 -20 -8 -20 -20 -17 -20 -19 -20 35 17 -20 -20 -17 12 16 20 13 -12 -20 -20 -20 -20 -20 -20 -20 -20 -20 -20 -20 5 -20 -13 10 -5 5 -20 -20 -20 -20 -20
-5 10 5 -11 -6 -20 -20 -20 -20 -20 -20 -20 -20 -20 -20 -20 -20 -11 -2 -6 18 10 13 10 -20 -20 -20 12 8 -20 22 -20 -18 -8 -20 -20 -20 -20 -20 -20 -20 -20 -20 -20 -20 -17 7 3 10 -14 -20 -20 -20 -20
-20 -20 -17 10 2 2 4 -20 -20 -20 -20 -20 -20 10 20 27 12 15 28 12 8 31 31 23 12 -18 18 -20 3 25 1 20 -20 -20 -20 -14 -20 10 -20 -20 -20 -20 -20 3 13 24 4 -20 -20 -20 -20 12 -15 -15
-20 -20 2 12 -20 4 14 11 -20 -20 -20 13 -2 10 8 -20 -20 18 26 27 37 22 21 35 30 0 -8 -10 16 27 36 -2 -14 17 14 -20 -20 -20 -20 -20 -20 -20 -20 -20 -20 -20 -19 -19 20 6 -20 5 -6 -7
-20 -20 -20 16 -16 16 18 14 -14 11 -8 10 31 33 -16 -15 19 -5 5 -13 3 23 16 24 20 27 -20 -11 -3 30 37 35 23 -2 6 -20 -20 -20 -20 -20 -20 -20 -20 -20 -20 -20 -20 2 23 21 1 15 12 -20
-20 -20 -20 25 20 16 14 22 17 16 31 33 7 2 24 15 -9 -20 -12 -8 5 20 25 13 13 -6 -20 -20 -8 2 -1 18 26 28 8 -17 -3 -10 -19 -20 -20 -20 -20 -19 -0 0 34 32 31 19 -18 -3 13 21
-19 -20 -20 -1 34 27 18 37 26 19 18 16 10 -10 -20 -20 -20 -19 20 24 17 4 3 26 23 18 3 3 -10 -13 -8 2 14 14 8 15 27 15 4 6 -4 14 17 11 23 18 21 15 8 15 10 16 16 15
-20 -20 -20 -20 -13 28 26 22 36 36 -12 18 13 -20 3 -15 1 8 16 -14 27 16 21 18 1 5 6 4 7 22 7 7 9 10 5 12 19 34 35 30 27 26 26 17 11 6 8 14 19 20 18 15 15 14
-12 -20 -20 -20 -16 -4 1 19 34 34 34 13 -4 20 18 16 14 14 18 10 23 30 27 22 -6 -13 -8 13 18 -11 -20 -9 -15 6 12 18 31 30 26 20 15 14 12 15 20 19 17 19 20 19 18 11 -5 -11
-20 -5 -0 -8 -5 6 1 16 30 32 23 -8 -6 14 4 18 20 19 17 20 22 28 32 25 23 -4 15 -20 -20 -20 -19 -18 -13 7 7 23 17 19 17 15 15 19 22 20 16 12 12 15 12 -2 -15 -20 -19 -17
7 2 -10 10 13 14 -4 3 18 23 7 1 16 24 26 25 24 17 8 7 7 -6 -16 -20 -20 -15 -7 -20 -20 -17 -14 -1 12 13 15 15 8 13 11 10 9 2 -1 -16 -17 -3 -1 -8 -4 0 -13 -20 -20 -20
19 17 22 18 16 24 23 27 13 1 1 14 13 17 16 14 0 -9 6 -2 1 1 -9 -6 -15 -15 -20 -20 -15 5 9 12 14 17 17 14 13 13 14 13 13 8 4 12 13 13 7 -7 -18 1 4 3 -1 0
31 27 27 33 30 9 17 14 -14 -15 3 5 9 2 -6 -12 -11 0 -4 -9 -19 -20 -20 -20 -20 -20 -7 3 2 2 4 9 1 13 14 13 13 14 14 12 9 6 2 7 8 8 8 8 9 9 8 4 -2 -18
38 32 26 24 22 14 -11 -15 -2 -15 -14 -20 -20 -20 -20 -20 -20 -20 -20 -20 -20 -20 -20 -20 -14 -3 2 2 8 11 9 9 7 8 3 2 8 7 8 6 5 6 -0 -5 -4 -4 0 3 7 9 7 2 -2 -5
32 30 31 21 9 -1 -20 -20 -20 -12 -20 -20 -20 -20 -20 -20 -20 -20 -20 -20 -20 -20 -3 0 -0 -0 2 3 3 8 8 9 6 0 8 6 9 5 1 2 -1 -6 -10 -1 -4 3 -0 1 3 -1 -3 -6 -14 -20
-11 -18 -5 -18 -20 -20 -20 -20 -20 -20 -20 -20 -20 -20 -20 -20 -20 -20 -20 -20 -4 1 6 -10 -4 -7 -20 -17 -10 -7 5 -1 1 2 5 7 8 7 6 9 5 5 4 5 3 -1 -6 -10 -15 -20 -20 -20 -20 -20
-20 -20 -20 -20 -20 -20 -20 -20 -20 -20 -20 -20 -20 -20 -20 -20 -20 -20 -20 -16 1 5 -2 1 -10 -20 -20 -8 -16 -20 -20 -20 -20 -20 -20 -20 -20 -17 -20 -20 -20 -20 -20 -18 -19 -20 -20 -20 -20 -20 -20 -20 -20 -20
-20 -20 -20 -20 -20 -20 -20 -20 -20 -20 -20 -20 -20 -20 -20 -20 -20 -20 -20 -20 -3 -17 -20 -20 -20 -20 -20 -20 -20 -20 -20 -20 -20 -20 -20 -20 -20 -20 -20 -20 -20 -20 -20 -20 -20 -20 -20 -20 -20 -20 -20 -20 -20 -20
-20 -20 -20 -20 -20 -20 -20 -20 -20 -20 -20 -20 -20 -20 -20 -20 -20 -20 -20 -20 -20 -20 -20 -20 -20 -20 -20 -20 -20 -20 -20 -20 -20 -20 -20 -20 -20 -20 -20 -20 -20 -20 -20 -20 -20 -20 -20 -20 -20 -20 -20 -20 -20 -20
-20 -20 -20 -20 -20 -20 -20 -20 -20 -20 -20 -20 -20 -20 -20 -20 -20 -20 -18 -20 -20 -20 -20 -20 -20 -20 -20 -20 -20 -20 -20 -20 -20 -20 -20 -20 -20 -20 -20 -20 -20 -20 -20 -20 -20 -20 -20 -20 -20 -20 -20 -20 -20 -20
-20 -20 -20 -20 -20 -20 -20 -20 -20 -20 -20 -20 -20 -20 -20 -20 -20 -20 -20 -20 -20 -20 -20 -20 -20 -20 -20 -20 -20 -20 -20 -20 -20 -20 -20 -20 -20 -20 -20 -20 -20 -20 -20 -20 -20 -20 -20 -20 -20 -20 -20 -20 -20 -20
-20 -20 -20 -20 -20 -20 -20 -20 -20 -20 -20 -20 -20 -20 -20 -20 -20 -20 -20 -20 -20 -20 -20 -20 -20 -20 -20 -20 -20 -20 -20 -20 -20 -20 -20 -20 -20 -20 -20 -20 -20 -20 -20 -20 -20 -20 -20 -20 -20 -20 -20 -20 -20 -20
-20 -20 -20 -20 -20 -20 -20 -20 -20 -20 -20 -20 -20 -20 -20 -20 -20 -20 -20 -20 -20 -20 -20 -20 -20 -20 -20 -20 -20 -20 -20 -20 -20 -20 -20 -20 -20 -20 -20 -20 -20 -20 -20 -20 -20 -20 -7 -20 -20 -20 -20 -20 -20 -20
-20 -20 -20 -20 -20 -20 -20 -20 -20 -20 -20 -20 -20 -18 -20 -20 -20 -20 -20 -20 -20 -20 -20 -20 -20 -20 -20 -20 -20 -20 -20 -20 -20 -20 -20 -20 -20 -20 -20 -20 -20 -20 -20 -20 -20 -20 -20 -20 -20 -20 -20 -20 -20 -20
-20 -20 -20 -20 -20 -20 -20 -20 -20 -20 -20 -20 -20 -20 -20 -20 -20 -20 -20 -20 -20 -20 -20 -20 -20 -20 -20 -20 -20 -20 -20 -20 -20 -20 -20 -20 -20 -20 -20 -20 -20 -20 -20 -20 -20 -20 -20 -20 -20 -20 -20 -20 -20 -20
-20 -20 -20 -20 -20 -20 -20 -20 -20 -20 -20 -20 -20 -20 -20 -20 -20 -20 -20 -20 -20 -20 -20 -20 -20 -20 -20 -20 -20 -20 -20 -20 -20 -20 -20 -20 -20 -20 -20 -20 -20 -20 -20 -20 -20 -20 -20 -20 -20 -20 -20 -20 -20 -20
-20 -20 -20 -20 -20 -20 -20 -20 -20 -20 -20 -20 -20 -20 -20 -20 -20 -20 -20 -20 -20 -20 -20 -20 -20 -20 -20 -20 -20 -20 -20 -20 -20 -20 -20 -20 -20 -20 -20 -20 -20 -20 -20 -20 -20 -20 -20 -20 -20 -20 -20 -20 -20 -20

GFSWCAN_prec_radar_048.txt.gz
Reflectivity
11 -20 -20 3 3 -10 15 17 9 25 17 27 12 -2 19 35 35 14 -12 9 21 23 6 25 12 18 3 23 18 -20 2 0 5 -12 -16 -20 -20 -20 -20 2 -20 -20 -20 -20 -20 -20 -20 -15 -20 -20 -20 -20 -20 -20
5 -20 -20 -16 1 -18 8 18 11 9 -1 6 -10 12 34 37 30 -13 13 6 3 8 -5 -12 4 18 20 -7 -20 -16 -20 -20 -4 -7 -20 -20 -19 -20 -20 -19 2 4 -18 -15 -20 -20 -20 -20 -20 -20 -20 -20 -20 -20
15 1 -20 -20 -9 10 20 11 -2 -20 8 -13 21 16 30 35 15 -6 23 2 -20 -20 -6 17 -14 3 20 1 -20 6 -20 -20 -20 -20 -20 -20 -8 -20 -20 -20 -20 -6 -20 -20 -20 -20 -20 -19 -20 -20 -20 -20 -20 -20
18 16 -19 -20 9 -2 10 21 18 2 12 18 20 33 33 31 33 13 1 -20 5 -12 -4 -4 30 -10 20 17 -20 -20 -20 -20 -20 -20 -20 -20 -19 -20 -20 -20 -11 -15 -18 -20 -20 -20 -20 -8 -20 -20 -20 -20 -20 -20
22 26 21 6 1 13 15 22 15 25 31 31 32 35 35 36 30 8 7 -20 -19 -20 -8 12 14 -11 -19 -8 23 -20 -20 -16 -8 -20 -17 -20 -20 -20 -20 -20 -20 -20 -20 -20 -20 -1 14 8 -20 -12 -20 -20 -20 -20
7 21 10 21 27 23 25 24 25 14 26 28 28 32 33 22 9 -19 -8 -20 -20 -20 0 21 18 22 34 32 17 -16 -12 6 13 11 6 -12 -20 -20 -20 -20 -20 -20 -20 -15 -20 -19 -16 -7 -12 -20 -20 -20 -20 -20
-16 -16 20 18 30 13 18 26 15 21 26 30 26 17 -7 -13 -9 16 -5 -20 -20 -19 -12 14 19 3 20 38 23 28 -10 -20 -20 16 8 16 -13 -16 -17 -20 -16 -14 -19 -20 -20 -20 -20 -20 -20 -7 -7 -9 -17 -20
-20 -20 -20 9 20 17 13 29 29 24 31 27 2 -13 -12 -4 -15 -20 19 -20 -15 3 -5 5 13 20 21 22 12 28 21 18 25 24 3 4 7 -17 10 -20 -20 -20 -20 -20 -20 -20 -20 -20 -20 -20 -15 10 14 -20
18 3 -20 -14 9 10 11 14 12 -2 -16 -17 1 -10 -19 -20 -20 5 -10 -20 -13 -9 -8 9 -4 10 -11 4 12 23 -9 21 11 13 8 17 -18 -11 -17 -20 -20 -20 -20 -17 -20 -20 -20 -20 -20 -20 -20 7 -2 -3
15 18 6 -20 -20 -20 -20 -20 -4 -20 -20 -1 1 -3 -9 5 22 7 14 12 -19 -3 2 -4 2 -4 6 11 12 14 22 -16 22 -3 -19 -7 5 -20 -20 -20 -20 -20 -20 -20 -20 -20 -20 -20 -20 -20 -20 -20 -13 6
4 5 15 12 -15 -20 -20 -6 -16 -20 -20 -10 -20 -20 11 7 31 35 31 23 23 22 5 8 -0 -15 24 33 8 -20 -19 5 16 1 -5 -14 -17 -11 -20 -20 -20 -20 -17 -10 -20 -20 -20 -20 -20 -20 -20 -20 -20 -20
14 6 8 4 -0 -20 -20 -20 -9 -12 -5 8 0 -9 -19 -1 9 -16 -19 -14 -9 13 20 10 5 -1 28 36 29 18 -10 25 32 30 -2 10 23 17 11 -11 -20 -16 -20 -18 -20 -20 -20 -20 -20 -20 -14 -0 14 26
-2 8 -8 12 3 2 7 -2 2 -20 -16 12 -3 -5 8 -17 -18 -20 -8 8 17 37 34 38 38 25 18 -12 -8 -15 4 5 6 25 21 17 21 -1 22 22 19 13 11 6 -5 -19 -12 14 17 4 5 14 14 12
-20 13 -12 0 -14 30 42 32 17 28 30 32 28 -19 7 -19 -1 3 -2 6 29 26 14 21 12 34 33 20 19 13 23 3 2 5 8 4 10 23 26 31 34 24 25 25 26 24 22 18 14 12 17 17 20 20
-20 -11 22 13 2 10 1 -8 -1 2 0 -3 -20 -7 -6 5 -6 1 -18 -1 22 37 30 28 33 30 27 25 -12 12 5 -10 -2 2 5 6 10 26 21 20 19 19 17 18 17 20 21 20 16 14 16 19 17 17
-20 -20 8 -19 -6 12 4 -19 -19 -10 0 4 -1 1 -6 -3 -7 -8 -4 9 24 29 37 36 33 19 -4 -16 -20 -19 -20 -2 2 2 1 5 8 0 3 9 15 14 13 7 1 7 12 12 9 14 16 15 14 13
-11 2 -14 -9 8 16 13 6 12 16 5 13 19 18 17 15 17 23 26 23 27 37 19 -14 -20 -20 -16 -20 -20 -1 -4 2 0 5 13 14 10 7 7 11 12 7 2 5 9 16 14 12 0 -10 -19 -20 -20 -6
5 -8 -20 3 7 -8 11 24 9 10 18 20 18 23 26 25 24 24 24 23 20 11 13 4 -18 -20 -16 -17 -17 2 -1 6 14 14 16 14 13 10 13 11 7 5 5 10 11 10 8 4 -8 -4 -6 0 -3 -5
13 15 24 29 27 14 27 20 7 4 14 13 14 16 17 12 -0 -11 -18 -12 -16 -20 -20 -20 -20 -11 -1 -0 -0 3 6 9 8 10 12 13 13 13 13 11 6 -1 -6 3 5 4 5 5 5 2 0 -2 -4 -3
31 30 26 12 9 11 -12 6 2 -15 -12 -20 -20 -20 -20 -20 -20 -20 -20 -20 -20 -20 -20 -20 1 4 2 3 5 3 1 0 6 8 7 6 8 6 3 1 -1 2 -7 -12 -14 -13 -18 -20 -20 -20 -16 -14 -20 -13
27 18 16 15 20 22 -19 -16 3 -13 -20 9 -20 -20 -20 -20 -20 -20 -20 -20 -20 -20 -3 8 5 3 4 3 3 0 1 6 -4 -12 -0 -12 3 -3 -3 -1 -5 -9 -19 -14 -20 -15 -20 -20 -3 -5 -19 -4 -3 -1
-13 -13 -15 6 -4 -20 -20 -20 -12 -20 -20 -20 -18 -20 -20 -20 -20 -20 -20 -20 -6 7 5 1 2 -4 -19 -15 -2 -1 -2 -20 -20 -20 -20 -18 -20 -20 -20 -2 -17 -19 -19 -9 -20 -16 -20 -20 -20 -20 -20 -9 -20 -20
-20 -20 -20 -20 -20 -20 -20 -20 -20 -20 -20 -20 -20 -20 -20 -20 -20 -20 -20 -6 2 3 6 1 -2 -12 -5 -7 -20 -20 -20 -20 -20 -20 -20 -20 -20 -20 -20 -20 -20 -20 -20 -20 -20 -20 -20 -20 -20 -20 -20 -20 -20 -20
-20 -20 -20 -20 -20 -20 -20 -20 -20 -20 -20 -20 -20 -16 -19 -20 -20 -20 -17 1 4 1 -7 -18 -17 -20 -20 -20 -20 -20 -20 -20 -20 -20 -20 -20 -20 -20 -20 -20 -20 -20 -20 -20 -20 -20 -20 -20 -20 -20 -20 -20 -20 -20
-20 -20 -20 -20 -20 -20 -20 -20 -20 -20 -20 -20 -20 -5 -20 -20 -20 -20 -18 -1 -1 -1 -1 -10 -20 -20 -20 -20 -20 -20 -20 -20 -20 -20 -20 -20 -20 -20 -20 -20 -20 -20 -20 -20 -19 -20 -20 -20 -20 -20 -20 -20 -20 -20
-20 -20 -20 -20 -20 -20 -20 -20 -20 -20 -20 -20 -20 -20 -20 -20 -20 -14 -2 0 -0 -1 -1 -0 0 -15 -20 -20 -20 -20 -20 -20 -20 -20 -20 -20 -20 -20 -20 -20 -20 -20 -7 -3 -3 -4 -20 -12 -11 -20 -4 -3 -15 -20
-20 -20 -20 -20 -20 -20 -20 -20 -20 -20 -20 -20 -20 -20 -20 -20 -20 1 2 -0 -18 -20 -20 -11 -9 -11 -20 -20 -20 -20 -20 -20 -20 -20 -20 -20 -20 -20 -20 -20 -20 -10 -20 -20 -4 -4 -7 -19 -20 -17 -4 -3 -2 -2
-20 -20 -20 -20 -20 -20 -20 -20 -20 -20 -18 -10 -20 -20 -20 -20 -12 1 1 -19 -20 -20 -20 -20 -20 -20 -20 -20 -8 -3 -20 -20 -20 -20 -20 -20 -20 -20 -20 -4 -20 -20 -20 -20 -19 -5 -1 -4 -5 -20 -20 -20 -20 -20
-20 -20 -20 -20 -20 -20 -18 -18 -20 -16 -20 -20 -20 -20 -4 -13 -1 1 0 -1 -1 -20 -20 -20 -20 -20 -20 -20 -20 -20 -20 -20 -20 -20 -20 -20 -20 -18 -4 -9 -3 -20 -20 -20 -19 -13 -1 -4 -7 -20 -20 -20 -20 -20
-20 -20 -20 -20 -20 -20 -20 -5 -20 -20 -20 -8 -20 -18 -20 -4 -3 -3 1 -0 -13 -20 -20 -20 -20 -20 -20 -20 -20 -20 -20 -20 -20 -20 -20 -20 -14 -18 -20 -20 -20 -20 -20 -20 -20 -20 -20 -20 -20 -20 -20 -20 -20 -20
-20 -20 -20 -20 -20 -20 -20 -20 -20 -20 -20 -20 -20 -20 -9 -3 -18 -19 -20 -20 -20 -20 -20 -20 -20 -20 -20 -20 -20 -20 -20 -20 -20 -20 -20 -20 -20 -4 -14 -20 -20 -20 -20 -20 -20 -20 -20 -20 -20 -20 -20 -20 -20 -20
-20 -20 -20 -20 -20 -20 -20 -20 -20 -20 -20 -20 -20 -20 -20 -20 -19 -20 -20 -20 -20 -20 -20 -20 -20 -20 -20 -20 -20 -20 -20 -20 -20 -20 -20 -20 -3 -5 -20 -20 -20 -20 -20 -20 -20 -20 -20 -20 -20 -20 -20 -20 -20 -20
-20 -20 -20 -20 -20 -20 -20 -20 -20 -20 -20 -20 -20 -20 -20 -20 -20 -20 -20 -20 -20 -20 -20 -20 -20 -20 -20 -20 -20 -20 -20 -20 -20 -20 -20 -20 -20 -20 -20 -20 -20 -20 -20 -20 -20 -20 -20 -20 -20 -20 -20 -20 -20 -20